Wetterdaten: Samstag, 29.04.2017
Datum Zeit Temp. Aussen Temp. o. S. +5cm Feuchte Auss BlattFeu 1 Luftdruck Regen Sonnenschein Regendauer Solar Windben Empfang
29.04.2017 00:00 4,9 C 3,3 C 1,7 C 84 % 0 lf 1015,7 hPa 0,0 l/m 0 min 0 min 0 W/m 4,2 km/h (1 Bft) 93,62 %
29.04.2017 00:02 4,9 C 3,3 C 1,7 C 84 % 0 lf 1015,7 hPa 0,0 l/m 0 min 0 min 0 W/m 6,3 km/h (2 Bft) 94,59 %
29.04.2017 00:04 4,8 C 3,3 C 1,7 C 84 % 0 lf 1015,7 hPa 0,0 l/m 0 min 0 min 0 W/m 4,2 km/h (1 Bft) 95,65 %
29.04.2017 00:06 4,8 C 3,3 C 1,7 C 84 % 0 lf 1015,7 hPa 0,0 l/m 0 min 0 min 0 W/m 6,3 km/h (2 Bft) 91,49 %
29.04.2017 00:10 4,7 C 3,3 C 1,7 C 84 % 0 lf 1015,7 hPa 0,0 l/m 0 min 0 min 0 W/m 6,3 km/h (2 Bft) 94,74 %
29.04.2017 00:12 4,7 C 3,3 C 1,7 C 84 % 0 lf 1015,8 hPa 0,0 l/m 0 min 0 min 0 W/m 6,3 km/h (2 Bft) 95,74 %
29.04.2017 00:14 4,7 C 3,3 C 1,7 C 84 % 0 lf 1015,8 hPa 0,0 l/m 0 min 0 min 3 W/m 6,3 km/h (2 Bft) 93,62 %
29.04.2017 00:16 4,7 C 3,3 C 1,7 C 84 % 0 lf 1015,9 hPa 0,0 l/m 0 min 0 min 5 W/m 6,3 km/h (2 Bft) 95,65 %
29.04.2017 00:18 4,6 C 3,3 C 1,7 C 84 % 0 lf 1015,8 hPa 0,0 l/m 0 min 0 min 5 W/m 4,2 km/h (1 Bft) 95,74 %
29.04.2017 00:20 4,6 C 3,3 C 1,7 C 84 % 0 lf 1015,8 hPa 0,0 l/m 0 min 0 min 0 W/m 8,4 km/h (2 Bft) 93,62 %
29.04.2017 00:22 4,6 C 3,3 C 1,7 C 84 % 0 lf 1015,9 hPa 0,0 l/m 0 min 0 min 5 W/m 8,4 km/h (2 Bft) 93,62 %
29.04.2017 00:24 4,5 C 3,3 C 1,7 C 84 % 0 lf 1015,8 hPa 0,0 l/m 0 min 0 min 5 W/m 6,3 km/h (2 Bft) 93,62 %
29.04.2017 00:26 4,5 C 3,3 C 1,7 C 84 % 0 lf 1015,9 hPa 0,0 l/m 0 min 0 min 5 W/m 6,3 km/h (2 Bft) 91,49 %
29.04.2017 00:28 4,4 C 3,3 C 1,7 C 84 % 0 lf 1015,9 hPa 0,0 l/m 0 min 0 min 0 W/m 6,3 km/h (2 Bft) 93,48 %
29.04.2017 00:30 4,4 C 3,3 C 1,7 C 84 % 0 lf 1015,9 hPa 0,0 l/m 0 min 0 min 0 W/m 6,3 km/h (2 Bft) 91,49 %
29.04.2017 00:32 4,4 C 3,3 C 1,7 C 84 % 0 lf 1015,9 hPa 0,0 l/m 0 min 0 min 0 W/m 8,4 km/h (2 Bft) 91,49 %
29.04.2017 00:34 4,3 C 3,3 C 1,7 C 84 % 0 lf 1015,9 hPa 0,0 l/m 0 min 0 min 5 W/m 6,3 km/h (2 Bft) 93,62 %
29.04.2017 00:36 4,3 C 3,3 C 1,7 C 85 % 0 lf 1015,9 hPa 0,0 l/m 0 min 0 min 5 W/m 6,3 km/h (2 Bft) 91,49 %
29.04.2017 00:38 4,3 C 3,3 C 1,1 C 85 % 0 lf 1015,9 hPa 0,0 l/m 0 min 0 min 5 W/m 4,2 km/h (1 Bft) 95,74 %
29.04.2017 00:40 4,2 C 3,3 C 1,1 C 85 % 0 lf 1015,9 hPa 0,0 l/m 0 min 0 min 5 W/m 4,2 km/h (1 Bft) 93,48 %
29.04.2017 00:42 4,2 C 3,3 C 1,1 C 85 % 0 lf 1016,0 hPa 0,0 l/m 0 min 0 min 5 W/m 4,2 km/h (1 Bft) 97,87 %
29.04.2017 00:44 4,2 C 2,8 C 1,1 C 85 % 0 lf 1016,0 hPa 0,0 l/m 0 min 0 min 5 W/m 2,1 km/h (1 Bft) 97,87 %
29.04.2017 00:46 4,2 C 2,8 C 1,1 C 85 % 0 lf 1016,1 hPa 0,0 l/m 0 min 0 min 5 W/m 2,1 km/h (1 Bft) 91,49 %
29.04.2017 00:48 4,1 C 2,8 C 1,1 C 85 % 0 lf 1016,1 hPa 0,0 l/m 0 min 0 min 5 W/m 2,1 km/h (1 Bft) 93,62 %
29.04.2017 00:50 4,1 C 2,8 C 1,1 C 85 % 0 lf 1016,1 hPa 0,0 l/m 0 min 0 min 5 W/m 2,1 km/h (1 Bft) 95,74 %
29.04.2017 00:52 4,1 C 2,8 C 1,1 C 85 % 0 lf 1015,9 hPa 0,0 l/m 0 min 0 min 5 W/m 4,2 km/h (1 Bft) 97,83 %
29.04.2017 00:54 4,1 C 3,3 C 1,1 C 85 % 0 lf 1016,1 hPa 0,0 l/m 0 min 0 min 5 W/m 2,1 km/h (1 Bft) 95,74 %
29.04.2017 00:56 4,0 C 3,3 C 1,1 C 85 % 0 lf 1016,2 hPa 0,0 l/m 0 min 0 min 5 W/m 4,2 km/h (1 Bft) 91,49 %
29.04.2017 00:58 4,0 C 3,3 C 1,1 C 85 % 0 lf 1016,2 hPa 0,0 l/m 0 min 0 min 5 W/m 4,2 km/h (1 Bft) 97,87 %
29.04.2017 01:00 3,9 C 3,3 C 1,1 C 85 % 0 lf 1016,1 hPa 0,0 l/m 0 min 0 min 5 W/m 4,2 km/h (1 Bft) 95,74 %
29.04.2017 01:02 3,9 C 3,3 C 1,1 C 85 % 0 lf 1016,1 hPa 0,0 l/m 0 min 0 min 5 W/m 4,2 km/h (1 Bft) 95,65 %
29.04.2017 01:04 3,9 C 3,3 C 1,1 C 85 % 0 lf 1016,2 hPa 0,0 l/m 0 min 0 min 5 W/m 6,3 km/h (2 Bft) 95,74 %
29.04.2017 01:06 3,9 C 3,3 C 1,7 C 86 % 0 lf 1016,2 hPa 0,0 l/m 0 min 0 min 0 W/m 6,3 km/h (2 Bft) 89,36 %
29.04.2017 01:08 3,9 C 3,3 C 1,7 C 86 % 0 lf 1016,1 hPa 0,0 l/m 0 min 0 min 0 W/m 8,4 km/h (2 Bft) 95,74 %
29.04.2017 01:10 3,8 C 3,3 C 1,7 C 86 % 0 lf 1016,1 hPa 0,0 l/m 0 min 0 min 4 W/m 6,3 km/h (2 Bft) 95,74 %
29.04.2017 01:12 3,8 C 3,3 C 1,7 C 86 % 0 lf 1016,2 hPa 0,0 l/m 0 min 0 min 5 W/m 4,2 km/h (1 Bft) 91,49 %
29.04.2017 01:14 3,8 C 3,3 C 1,7 C 86 % 0 lf 1016,2 hPa 0,0 l/m 0 min 0 min 5 W/m 4,2 km/h (1 Bft) 95,65 %
29.04.2017 01:16 3,8 C 3,3 C 1,7 C 86 % 0 lf 1016,2 hPa 0,0 l/m 0 min 0 min 5 W/m 4,2 km/h (1 Bft) 93,62 %
29.04.2017 01:18 3,8 C 3,3 C 1,7 C 86 % 0 lf 1016,1 hPa 0,0 l/m 0 min 0 min 5 W/m 6,3 km/h (2 Bft) 95,74 %
29.04.2017 01:20 3,7 C 3,3 C 1,7 C 87 % 0 lf 1016,2 hPa 0,0 l/m 0 min 0 min 3 W/m 6,3 km/h (2 Bft) 93,62 %
29.04.2017 01:22 3,7 C 3,3 C 1,7 C 87 % 0 lf 1016,2 hPa 0,0 l/m 0 min 0 min 0 W/m 4,2 km/h (1 Bft) 95,74 %
29.04.2017 01:24 3,7 C 3,3 C 1,7 C 87 % 0 lf 1016,2 hPa 0,0 l/m 0 min 0 min 0 W/m 4,2 km/h (1 Bft) 95,74 %
29.04.2017 01:26 3,7 C 3,3 C 1,7 C 87 % 0 lf 1016,2 hPa 0,0 l/m 0 min 0 min 0 W/m 4,2 km/h (1 Bft) 95,65 %
29.04.2017 01:28 3,7 C 3,3 C 1,7 C 87 % 0 lf 1016,2 hPa 0,0 l/m 0 min 0 min 0 W/m 6,3 km/h (2 Bft) 95,74 %
29.04.2017 01:30 3,7 C 2,8 C 1,7 C 87 % 0 lf 1016,3 hPa 0,0 l/m 0 min 0 min 0 W/m 4,2 km/h (1 Bft) 95,74 %
29.04.2017 01:32 3,7 C 2,8 C 1,1 C 87 % 0 lf 1016,2 hPa 0,0 l/m 0 min 0 min 0 W/m 4,2 km/h (1 Bft) 95,74 %
29.04.2017 01:34 3,7 C 2,8 C 1,7 C 87 % 0 lf 1016,3 hPa 0,0 l/m 0 min 0 min 0 W/m 4,2 km/h (1 Bft) 98,00 %
29.04.2017 01:36 3,6 C 2,8 C 1,1 C 87 % 0 lf 1016,4 hPa 0,0 l/m 0 min 0 min 0 W/m 4,2 km/h (1 Bft) 93,48 %
29.04.2017 01:38 3,6 C 2,8 C 1,1 C 87 % 0 lf 1016,4 hPa 0,0 l/m 0 min 0 min 0 W/m 4,2 km/h (1 Bft) 100,00 %
29.04.2017 01:40 3,6 C 2,8 C 1,1 C 87 % 0 lf 1016,4 hPa 0,0 l/m 0 min 0 min 0 W/m 6,3 km/h (2 Bft) 100,00 %
29.04.2017 01:42 3,6 C 2,8 C 1,1 C 87 % 0 lf 1016,5 hPa 0,0 l/m 0 min 0 min 0 W/m 4,2 km/h (1 Bft) 97,87 %
29.04.2017 01:44 3,6 C 2,8 C 1,1 C 87 % 0 lf 1016,5 hPa 0,0 l/m 0 min 0 min 0 W/m 2,1 km/h (1 Bft) 95,74 %
29.04.2017 01:46 3,6 C 2,8 C 1,1 C 88 % 0 lf 1016,5 hPa 0,0 l/m 0 min 0 min 0 W/m 2,1 km/h (1 Bft) 97,87 %
29.04.2017 01:48 3,6 C 2,8 C 1,1 C 88 % 0 lf 1016,5 hPa 0,0 l/m 0 min 0 min 0 W/m 4,2 km/h (1 Bft) 100,00 %
29.04.2017 01:50 3,6 C 2,8 C 1,1 C 88 % 0 lf 1016,5 hPa 0,0 l/m 0 min 0 min 0 W/m 4,2 km/h (1 Bft) 95,74 %
29.04.2017 01:52 3,6 C 2,8 C 1,1 C 88 % 0 lf 1016,4 hPa 0,0 l/m 0 min 0 min 0 W/m 4,2 km/h (1 Bft) 97,14 %
29.04.2017 01:54 3,6 C 3,3 C 1,1 C 88 % 0 lf 1016,4 hPa 0,0 l/m 0 min 0 min 0 W/m 6,3 km/h (2 Bft) 100,00 %
29.04.2017 01:56 3,6 C 3,3 C 1,1 C 88 % 0 lf 1016,4 hPa 0,0 l/m 0 min 0 min 0 W/m 6,3 km/h (2 Bft) 100,00 %
29.04.2017 01:58 3,5 C 3,3 C 1,1 C 88 % 0 lf 1016,4 hPa 0,0 l/m 0 min 0 min 0 W/m 6,3 km/h (2 Bft) 95,74 %
29.04.2017 02:00 3,5 C 3,3 C 1,1 C 88 % 0 lf 1016,3 hPa 0,0 l/m 0 min 0 min 0 W/m 8,4 km/h (2 Bft) 93,62 %
29.04.2017 02:02 3,5 C 3,3 C 1,1 C 88 % 0 lf 1016,4 hPa 0,0 l/m 0 min 0 min 0 W/m 6,3 km/h (2 Bft) 97,87 %
29.04.2017 02:04 3,5 C 3,3 C 1,1 C 88 % 0 lf 1016,4 hPa 0,0 l/m 0 min 0 min 0 W/m 6,3 km/h (2 Bft) 97,83 %
29.04.2017 02:06 3,5 C 3,3 C 1,1 C 88 % 0 lf 1016,4 hPa 0,0 l/m 0 min 0 min 0 W/m 6,3 km/h (2 Bft) 98,11 %
29.04.2017 02:08 3,4 C 3,3 C 1,1 C 88 % 0 lf 1016,4 hPa 0,0 l/m 0 min 0 min 0 W/m 6,3 km/h (2 Bft) 97,87 %
29.04.2017 02:10 3,5 C 3,3 C 1,1 C 88 % 0 lf 1016,4 hPa 0,0 l/m 0 min 0 min 0 W/m 6,3 km/h (2 Bft) 100,00 %
29.04.2017 02:12 3,4 C 3,3 C 1,1 C 88 % 0 lf 1016,4 hPa 0,0 l/m 0 min 0 min 0 W/m 6,3 km/h (2 Bft) 100,00 %
29.04.2017 02:14 3,4 C 3,3 C 1,1 C 89 % 0 lf 1016,3 hPa 0,0 l/m 0 min 0 min 0 W/m 6,3 km/h (2 Bft) 97,83 %
29.04.2017 02:16 3,4 C 3,3 C 1,7 C 89 % 0 lf 1016,3 hPa 0,0 l/m 0 min 0 min 0 W/m 6,3 km/h (2 Bft) 92,68 %
29.04.2017 02:18 3,4 C 3,3 C 1,7 C 89 % 0 lf 1016,3 hPa 0,0 l/m 0 min 0 min 0 W/m 4,2 km/h (1 Bft) 100,00 %
29.04.2017 02:20 3,4 C 3,3 C 1,1 C 89 % 0 lf 1016,3 hPa 0,0 l/m 0 min 0 min 0 W/m 6,3 km/h (2 Bft) 98,31 %
29.04.2017 02:22 3,4 C 3,3 C 1,1 C 89 % 0 lf 1016,3 hPa 0,0 l/m 0 min 0 min 0 W/m 6,3 km/h (2 Bft) 100,00 %
29.04.2017 02:24 3,4 C 3,3 C 1,1 C 89 % 0 lf 1016,3 hPa 0,0 l/m 0 min 0 min 0 W/m 6,3 km/h (2 Bft) 97,87 %
29.04.2017 02:26 3,4 C 3,3 C 1,1 C 89 % 0 lf 1016,3 hPa 0,0 l/m 0 min 0 min 0 W/m 4,2 km/h (1 Bft) 95,65 %
29.04.2017 02:28 3,4 C 2,8 C 1,1 C 89 % 0 lf 1016,3 hPa 0,0 l/m 0 min 0 min 0 W/m 4,2 km/h (1 Bft) 97,87 %
29.04.2017 02:30 3,4 C 2,8 C 1,1 C 89 % 1 lf 1016,4 hPa 0,0 l/m 0 min 0 min 0 W/m 4,2 km/h (1 Bft) 97,87 %
29.04.2017 02:32 3,3 C 2,8 C 1,1 C 89 % 1 lf 1016,4 hPa 0,0 l/m 0 min 0 min 0 W/m 4,2 km/h (1 Bft) 95,74 %
29.04.2017 02:34 3,3 C 2,8 C 0,6 C 89 % 1 lf 1016,5 hPa 0,0 l/m 0 min 0 min 1 W/m 4,2 km/h (1 Bft) 96,23 %
29.04.2017 02:36 3,3 C 2,2 C 0,6 C 89 % 1 lf 1016,5 hPa 0,0 l/m 0 min 0 min 0 W/m 4,2 km/h (1 Bft) 97,83 %
29.04.2017 02:38 3,3 C 2,2 C 0,6 C 89 % 1 lf 1016,5 hPa 0,0 l/m 0 min 0 min 5 W/m 6,3 km/h (2 Bft) 97,87 %
29.04.2017 02:40 3,3 C 2,8 C 0,6 C 89 % 1 lf 1016,5 hPa 0,0 l/m 0 min 0 min 5 W/m 6,3 km/h (2 Bft) 97,87 %
29.04.2017 02:42 3,3 C 2,8 C 0,6 C 89 % 1 lf 1016,5 hPa 0,0 l/m 0 min 0 min 0 W/m 6,3 km/h (2 Bft) 95,74 %
29.04.2017 02:44 3,3 C 2,8 C 0,6 C 89 % 1 lf 1016,5 hPa 0,0 l/m 0 min 0 min 0 W/m 6,3 km/h (2 Bft) 97,87 %
29.04.2017 02:46 3,2 C 2,8 C 0,6 C 89 % 1 lf 1016,5 hPa 0,0 l/m 0 min 0 min 0 W/m 8,4 km/h (2 Bft) 97,56 %
29.04.2017 02:48 3,2 C 2,8 C 0,6 C 89 % 1 lf 1016,4 hPa 0,0 l/m 0 min 0 min 0 W/m 6,3 km/h (2 Bft) 95,74 %
29.04.2017 02:50 3,2 C 2,8 C 1,1 C 89 % 1 lf 1016,5 hPa 0,0 l/m 0 min 0 min 0 W/m 6,3 km/h (2 Bft) 96,88 %
29.04.2017 02:52 3,2 C 2,8 C 1,1 C 89 % 1 lf 1016,5 hPa 0,0 l/m 0 min 0 min 0 W/m 6,3 km/h (2 Bft) 94,29 %
29.04.2017 02:54 3,2 C 2,8 C 0,6 C 89 % 1 lf 1016,4 hPa 0,0 l/m 0 min 0 min 0 W/m 6,3 km/h (2 Bft) 95,74 %
29.04.2017 02:56 3,1 C 2,8 C 1,1 C 89 % 1 lf 1016,4 hPa 0,0 l/m 0 min 0 min 0 W/m 6,3 km/h (2 Bft) 95,74 %
29.04.2017 02:58 3,1 C 2,8 C 0,6 C 89 % 1 lf 1016,4 hPa 0,0 l/m 0 min 0 min 0 W/m 6,3 km/h (2 Bft) 93,62 %
29.04.2017 03:00 3,1 C 2,8 C 1,1 C 89 % 1 lf 1016,4 hPa 0,0 l/m 0 min 0 min 0 W/m 8,4 km/h (2 Bft) 95,65 %
29.04.2017 03:02 3,1 C 2,8 C 1,1 C 89 % 1 lf 1016,5 hPa 0,0 l/m 0 min 0 min 1 W/m 6,3 km/h (2 Bft) 97,87 %
29.04.2017 03:04 3,1 C 2,8 C 1,1 C 89 % 1 lf 1016,5 hPa 0,0 l/m 0 min 0 min 4 W/m 10,5 km/h (2 Bft) 100,00 %
29.04.2017 03:06 3,1 C 2,8 C 1,1 C 89 % 1 lf 1016,5 hPa 0,0 l/m 0 min 0 min 0 W/m 8,4 km/h (2 Bft) 96,23 %
29.04.2017 03:08 3,1 C 2,8 C 1,1 C 89 % 1 lf 1016,5 hPa 0,0 l/m 0 min 0 min 0 W/m 8,4 km/h (2 Bft) 95,74 %
29.04.2017 03:10 3,0 C 2,8 C 1,1 C 89 % 1 lf 1016,6 hPa 0,0 l/m 0 min 0 min 0 W/m 6,3 km/h (2 Bft) 97,87 %
29.04.2017 03:12 3,0 C 2,8 C 1,1 C 89 % 1 lf 1016,6 hPa 0,0 l/m 0 min 0 min 0 W/m 8,4 km/h (2 Bft) 97,83 %
29.04.2017 03:14 3,0 C 2,8 C 1,1 C 89 % 1 lf 1016,6 hPa 0,0 l/m 0 min 0 min 5 W/m 8,4 km/h (2 Bft) 97,87 %
29.04.2017 03:16 3,0 C 2,8 C 1,1 C 90 % 1 lf 1016,6 hPa 0,0 l/m 0 min 0 min 5 W/m 6,3 km/h (2 Bft) 97,87 %
29.04.2017 03:18 2,9 C 2,8 C 1,1 C 90 % 1 lf 1016,6 hPa 0,0 l/m 0 min 0 min 5 W/m 6,3 km/h (2 Bft) 95,74 %
29.04.2017 03:20 2,9 C 3,3 C 1,7 C 90 % 0 lf 1016,6 hPa 0,0 l/m 0 min 0 min 5 W/m 8,4 km/h (2 Bft) 96,55 %
29.04.2017 03:22 2,9 C 3,3 C 1,7 C 90 % 0 lf 1016,5 hPa 0,0 l/m 0 min 0 min 5 W/m 8,4 km/h (2 Bft) 100,00 %
29.04.2017 03:24 2,9 C 3,3 C 1,7 C 90 % 0 lf 1016,6 hPa 0,0 l/m 0 min 0 min 5 W/m 8,4 km/h (2 Bft) 95,65 %
29.04.2017 03:26 3,0 C 3,3 C 1,7 C 90 % 0 lf 1016,5 hPa 0,0 l/m 0 min 0 min 5 W/m 8,4 km/h (2 Bft) 97,87 %
29.04.2017 03:28 3,0 C 3,3 C 1,7 C 90 % 0 lf 1016,5 hPa 0,0 l/m 0 min 0 min 0 W/m 8,4 km/h (2 Bft) 100,00 %
29.04.2017 03:30 3,0 C 3,3 C 1,7 C 90 % 0 lf 1016,5 hPa 0,0 l/m 0 min 0 min 0 W/m 8,4 km/h (2 Bft) 100,00 %
29.04.2017 03:32 3,0 C 3,3 C 1,7 C 90 % 0 lf 1016,5 hPa 0,0 l/m 0 min 0 min 0 W/m 8,4 km/h (2 Bft) 100,00 %
29.04.2017 03:34 3,0 C 3,3 C 1,7 C 90 % 0 lf 1016,5 hPa 0,0 l/m 0 min 0 min 0 W/m 8,4 km/h (2 Bft) 100,00 %
29.04.2017 03:36 3,0 C 3,3 C 1,7 C 90 % 0 lf 1016,5 hPa 0,0 l/m 0 min 0 min 0 W/m 8,4 km/h (2 Bft) 98,08 %
29.04.2017 03:38 3,0 C 3,3 C 1,7 C 90 % 0 lf 1016,5 hPa 0,0 l/m 0 min 0 min 0 W/m 6,3 km/h (2 Bft) 97,87 %
29.04.2017 03:40 3,0 C 3,3 C 1,7 C 90 % 0 lf 1016,5 hPa 0,0 l/m 0 min 0 min 0 W/m 8,4 km/h (2 Bft) 100,00 %
29.04.2017 03:42 3,0 C 3,3 C 1,7 C 91 % 0 lf 1016,4 hPa 0,0 l/m 0 min 0 min 0 W/m 6,3 km/h (2 Bft) 100,00 %
29.04.2017 03:44 3,0 C 3,3 C 1,1 C 91 % 1 lf 1016,4 hPa 0,0 l/m 0 min 0 min 0 W/m 6,3 km/h (2 Bft) 100,00 %
29.04.2017 03:46 3,0 C 2,8 C 1,1 C 91 % 1 lf 1016,5 hPa 0,0 l/m 0 min 0 min 0 W/m 6,3 km/h (2 Bft) 95,74 %
29.04.2017 03:48 3,0 C 2,8 C 1,1 C 91 % 1 lf 1016,5 hPa 0,0 l/m 0 min 0 min 0 W/m 6,3 km/h (2 Bft) 97,83 %
29.04.2017 03:50 3,0 C 2,8 C 1,1 C 91 % 1 lf 1016,5 hPa 0,0 l/m 0 min 0 min 0 W/m 8,4 km/h (2 Bft) 97,87 %
29.04.2017 03:52 3,0 C 2,8 C 1,1 C 91 % 1 lf 1016,5 hPa 0,0 l/m 0 min 0 min 0 W/m 8,4 km/h (2 Bft) 96,61 %
29.04.2017 03:54 2,9 C 2,8 C 1,1 C 91 % 1 lf 1016,6 hPa 0,0 l/m 0 min 0 min 0 W/m 8,4 km/h (2 Bft) 97,87 %
29.04.2017 03:56 2,9 C 2,8 C 1,1 C 91 % 1 lf 1016,5 hPa 0,0 l/m 0 min 0 min 0 W/m 10,5 km/h (2 Bft) 95,65 %
29.04.2017 03:58 2,9 C 2,8 C 1,1 C 91 % 1 lf 1016,6 hPa 0,0 l/m 0 min 0 min 0 W/m 6,3 km/h (2 Bft) 95,74 %
29.04.2017 04:00 2,9 C 2,8 C 1,1 C 91 % 1 lf 1016,7 hPa 0,0 l/m 0 min 0 min 0 W/m 6,3 km/h (2 Bft) 97,87 %
29.04.2017 04:05 2,9 C 2,8 C 1,1 C 91 % 1 lf 1016,6 hPa 0,0 l/m 0 min 0 min 0 W/m 6,3 km/h (2 Bft) 100,00 %
29.04.2017 04:06 2,9 C 2,8 C 1,1 C 91 % 1 lf 1016,6 hPa 0,0 l/m 0 min 0 min 0 W/m 6,3 km/h (2 Bft) 100,00 %
29.04.2017 04:08 2,9 C 2,2 C 0,6 C 91 % 1 lf 1016,6 hPa 0,0 l/m 0 min 0 min 0 W/m 6,3 km/h (2 Bft) 100,00 %
29.04.2017 04:10 2,9 C 2,2 C 0,6 C 91 % 1 lf 1016,6 hPa 0,0 l/m 0 min 0 min 0 W/m 6,3 km/h (2 Bft) 95,74 %
29.04.2017 04:12 2,9 C 2,2 C 0,6 C 91 % 1 lf 1016,6 hPa 0,0 l/m 0 min 0 min 0 W/m 6,3 km/h (2 Bft) 97,87 %
29.04.2017 04:14 2,8 C 1,7 C 0,0 C 91 % 1 lf 1016,6 hPa 0,0 l/m 0 min 0 min 0 W/m 4,2 km/h (1 Bft) 95,74 %
29.04.2017 04:16 2,8 C 2,2 C 0,0 C 91 % 1 lf 1016,7 hPa 0,0 l/m 0 min 0 min 0 W/m 6,3 km/h (2 Bft) 95,74 %
29.04.2017 04:18 2,8 C 2,2 C 0,0 C 91 % 1 lf 1016,6 hPa 0,0 l/m 0 min 0 min 0 W/m 6,3 km/h (2 Bft) 95,74 %
29.04.2017 04:20 2,8 C 2,2 C 0,6 C 91 % 1 lf 1016,7 hPa 0,0 l/m 0 min 0 min 0 W/m 6,3 km/h (2 Bft) 95,65 %
29.04.2017 04:22 2,7 C 2,2 C 0,0 C 91 % 1 lf 1016,6 hPa 0,0 l/m 0 min 0 min 0 W/m 4,2 km/h (1 Bft) 93,62 %
29.04.2017 04:24 2,7 C 1,7 C 0,0 C 91 % 1 lf 1016,6 hPa 0,0 l/m 0 min 0 min 0 W/m 6,3 km/h (2 Bft) 91,49 %
29.04.2017 04:26 2,7 C 1,7 C 0,0 C 91 % 1 lf 1016,7 hPa 0,0 l/m 0 min 0 min 0 W/m 4,2 km/h (1 Bft) 95,74 %
29.04.2017 04:28 2,7 C 1,7 C 0,0 C 91 % 1 lf 1016,7 hPa 0,0 l/m 0 min 0 min 0 W/m 4,2 km/h (1 Bft) 95,74 %
29.04.2017 04:30 2,7 C 1,7 C 0,0 C 91 % 1 lf 1016,7 hPa 0,0 l/m 0 min 0 min 0 W/m 8,4 km/h (2 Bft) 95,74 %
29.04.2017 04:32 2,6 C 2,2 C 0,0 C 91 % 1 lf 1016,7 hPa 0,0 l/m 0 min 0 min 0 W/m 8,4 km/h (2 Bft) 95,65 %
29.04.2017 04:34 2,6 C 2,2 C 0,6 C 91 % 1 lf 1016,7 hPa 0,0 l/m 0 min 0 min 0 W/m 8,4 km/h (2 Bft) 93,62 %
29.04.2017 04:36 2,6 C 2,2 C 0,6 C 91 % 1 lf 1016,7 hPa 0,0 l/m 0 min 0 min 0 W/m 8,4 km/h (2 Bft) 91,49 %
29.04.2017 04:38 2,6 C 2,2 C 0,6 C 91 % 1 lf 1016,8 hPa 0,0 l/m 0 min 0 min 0 W/m 6,3 km/h (2 Bft) 95,74 %
29.04.2017 04:40 2,5 C 2,2 C 0,6 C 91 % 1 lf 1016,8 hPa 0,0 l/m 0 min 0 min 0 W/m 6,3 km/h (2 Bft) 95,74 %
29.04.2017 04:42 2,5 C 1,7 C 0,6 C 91 % 1 lf 1016,8 hPa 0,0 l/m 0 min 0 min 0 W/m 6,3 km/h (2 Bft) 93,48 %
29.04.2017 04:44 2,5 C 1,7 C 0,6 C 91 % 1 lf 1016,8 hPa 0,0 l/m 0 min 0 min 0 W/m 4,2 km/h (1 Bft) 95,74 %
29.04.2017 04:46 2,4 C 1,7 C 0,0 C 91 % 1 lf 1016,7 hPa 0,0 l/m 0 min 0 min 5 W/m 8,4 km/h (2 Bft) 91,49 %
29.04.2017 04:48 2,4 C 1,7 C 0,6 C 91 % 1 lf 1016,8 hPa 0,0 l/m 0 min 0 min 5 W/m 6,3 km/h (2 Bft) 93,62 %
29.04.2017 04:50 2,4 C 1,7 C 0,6 C 91 % 1 lf 1016,7 hPa 0,0 l/m 0 min 0 min 5 W/m 6,3 km/h (2 Bft) 91,49 %
29.04.2017 04:52 2,4 C 1,7 C 0,6 C 91 % 1 lf 1016,8 hPa 0,0 l/m 0 min 0 min 5 W/m 6,3 km/h (2 Bft) 91,49 %
29.04.2017 04:54 2,4 C 1,7 C 0,6 C 91 % 1 lf 1016,8 hPa 0,0 l/m 0 min 0 min 5 W/m 4,2 km/h (1 Bft) 91,30 %
29.04.2017 04:56 2,4 C 1,7 C 0,0 C 91 % 1 lf 1016,8 hPa 0,0 l/m 0 min 0 min 5 W/m 6,3 km/h (2 Bft) 93,62 %
29.04.2017 04:58 2,3 C 1,7 C 0,0 C 91 % 1 lf 1016,8 hPa 0,0 l/m 0 min 0 min 5 W/m 4,2 km/h (1 Bft) 93,62 %
29.04.2017 05:00 2,3 C 1,7 C 0,0 C 91 % 1 lf 1016,8 hPa 0,0 l/m 0 min 0 min 5 W/m 2,1 km/h (1 Bft) 93,62 %
29.04.2017 05:02 2,3 C 1,7 C 0,0 C 91 % 1 lf 1016,8 hPa 0,0 l/m 0 min 0 min 5 W/m 6,3 km/h (2 Bft) 93,62 %
29.04.2017 05:04 2,3 C 1,7 C 0,0 C 91 % 1 lf 1016,8 hPa 0,0 l/m 0 min 0 min 5 W/m 6,3 km/h (2 Bft) 91,49 %
29.04.2017 05:06 2,3 C 1,7 C 0,6 C 91 % 1 lf 1016,9 hPa 0,0 l/m 0 min 0 min 0 W/m 6,3 km/h (2 Bft) 91,30 %
29.04.2017 05:08 2,3 C 1,7 C 0,6 C 91 % 1 lf 1016,9 hPa 0,0 l/m 0 min 0 min 0 W/m 6,3 km/h (2 Bft) 93,62 %
29.04.2017 05:10 2,2 C 1,7 C 0,6 C 91 % 1 lf 1017,0 hPa 0,0 l/m 0 min 0 min 0 W/m 6,3 km/h (2 Bft) 95,74 %
29.04.2017 05:12 2,2 C 2,2 C 0,6 C 91 % 1 lf 1017,0 hPa 0,0 l/m 0 min 0 min 0 W/m 6,3 km/h (2 Bft) 93,62 %
29.04.2017 05:14 2,2 C 2,2 C 0,6 C 91 % 1 lf 1017,0 hPa 0,0 l/m 0 min 0 min 0 W/m 8,4 km/h (2 Bft) 93,62 %
29.04.2017 05:16 2,2 C 2,2 C 0,6 C 91 % 1 lf 1017,0 hPa 0,0 l/m 0 min 0 min 0 W/m 6,3 km/h (2 Bft) 95,74 %
29.04.2017 05:18 2,2 C 2,2 C 0,6 C 91 % 1 lf 1017,0 hPa 0,0 l/m 0 min 0 min 0 W/m 6,3 km/h (2 Bft) 93,48 %
29.04.2017 05:20 2,2 C 2,2 C 1,1 C 91 % 1 lf 1017,1 hPa 0,0 l/m 0 min 0 min 0 W/m 8,4 km/h (2 Bft) 95,74 %
29.04.2017 05:22 2,2 C 2,2 C 1,1 C 91 % 0 lf 1017,1 hPa 0,0 l/m 0 min 0 min 0 W/m 6,3 km/h (2 Bft) 93,62 %
29.04.2017 05:24 2,2 C 2,2 C 1,1 C 91 % 0 lf 1017,0 hPa 0,0 l/m 0 min 0 min 0 W/m 8,4 km/h (2 Bft) 95,74 %
29.04.2017 05:26 2,2 C 2,2 C 1,1 C 91 % 0 lf 1017,1 hPa 0,0 l/m 0 min 0 min 0 W/m 6,3 km/h (2 Bft) 100,00 %
29.04.2017 05:28 2,2 C 2,2 C 1,1 C 91 % 0 lf 1017,1 hPa 0,0 l/m 0 min 0 min 0 W/m 8,4 km/h (2 Bft) 97,87 %
29.04.2017 05:30 2,2 C 2,2 C 1,1 C 91 % 0 lf 1017,1 hPa 0,0 l/m 0 min 0 min 0 W/m 8,4 km/h (2 Bft) 95,65 %
29.04.2017 05:32 2,2 C 2,2 C 1,1 C 91 % 0 lf 1017,1 hPa 0,0 l/m 0 min 0 min 0 W/m 6,3 km/h (2 Bft) 97,87 %
29.04.2017 05:34 2,2 C 2,2 C 1,1 C 91 % 0 lf 1017,0 hPa 0,0 l/m 0 min 0 min 0 W/m 8,4 km/h (2 Bft) 95,74 %
29.04.2017 05:36 2,3 C 2,8 C 1,1 C 91 % 0 lf 1017,1 hPa 0,0 l/m 0 min 0 min 0 W/m 8,4 km/h (2 Bft) 95,74 %
29.04.2017 05:38 2,3 C 2,8 C 1,1 C 91 % 0 lf 1017,1 hPa 0,0 l/m 0 min 0 min 0 W/m 6,3 km/h (2 Bft) 97,87 %
29.04.2017 05:40 2,3 C 2,2 C 1,1 C 91 % 0 lf 1017,0 hPa 0,0 l/m 0 min 0 min 0 W/m 6,3 km/h (2 Bft) 100,00 %
29.04.2017 05:42 2,3 C 2,2 C 1,1 C 92 % 0 lf 1017,1 hPa 0,0 l/m 0 min 0 min 0 W/m 4,2 km/h (1 Bft) 100,00 %
29.04.2017 05:44 2,3 C 2,2 C 1,1 C 92 % 0 lf 1017,0 hPa 0,0 l/m 0 min 0 min 0 W/m 2,1 km/h (1 Bft) 100,00 %
29.04.2017 05:46 2,3 C 2,2 C 1,1 C 92 % 1 lf 1017,1 hPa 0,0 l/m 0 min 0 min 0 W/m 4,2 km/h (1 Bft) 95,74 %
29.04.2017 05:48 2,3 C 2,2 C 1,1 C 92 % 1 lf 1017,1 hPa 0,0 l/m 0 min 0 min 0 W/m 4,2 km/h (1 Bft) 97,87 %
29.04.2017 05:50 2,3 C 2,2 C 1,1 C 92 % 1 lf 1017,1 hPa 0,0 l/m 0 min 0 min 0 W/m 4,2 km/h (1 Bft) 97,87 %
29.04.2017 05:52 2,3 C 2,2 C 0,6 C 92 % 1 lf 1017,1 hPa 0,0 l/m 0 min 0 min 0 W/m 6,3 km/h (2 Bft) 97,83 %
29.04.2017 05:54 2,3 C 2,2 C 0,6 C 92 % 1 lf 1017,1 hPa 0,0 l/m 0 min 0 min 0 W/m 6,3 km/h (2 Bft) 100,00 %
29.04.2017 05:56 2,3 C 2,2 C 0,6 C 92 % 1 lf 1017,1 hPa 0,0 l/m 0 min 0 min 9 W/m 6,3 km/h (2 Bft) 97,87 %
29.04.2017 05:58 2,3 C 2,2 C 0,6 C 92 % 1 lf 1017,1 hPa 0,0 l/m 0 min 0 min 9 W/m 8,4 km/h (2 Bft) 100,00 %
29.04.2017 06:00 2,3 C 2,2 C 0,6 C 92 % 1 lf 1017,1 hPa 0,0 l/m 0 min 0 min 11 W/m 6,3 km/h (2 Bft) 97,87 %
29.04.2017 06:02 2,3 C 2,2 C 0,6 C 92 % 1 lf 1017,1 hPa 0,0 l/m 0 min 0 min 11 W/m 6,3 km/h (2 Bft) 97,87 %
29.04.2017 06:04 2,2 C 2,2 C 0,6 C 92 % 1 lf 1017,2 hPa 0,0 l/m 0 min 0 min 11 W/m 6,3 km/h (2 Bft) 100,00 %
29.04.2017 06:06 2,2 C 1,7 C 0,6 C 92 % 1 lf 1017,2 hPa 0,0 l/m 0 min 0 min 11 W/m 6,3 km/h (2 Bft) 93,62 %
29.04.2017 06:08 2,2 C 1,7 C 0,6 C 92 % 1 lf 1017,2 hPa 0,0 l/m 0 min 0 min 12 W/m 6,3 km/h (2 Bft) 100,00 %
29.04.2017 06:10 2,2 C 1,7 C 0,6 C 92 % 1 lf 1017,3 hPa 0,0 l/m 0 min 0 min 12 W/m 4,2 km/h (1 Bft) 93,62 %
29.04.2017 06:12 2,2 C 1,7 C 0,6 C 92 % 1 lf 1017,2 hPa 0,0 l/m 0 min 0 min 12 W/m 4,2 km/h (1 Bft) 97,87 %
29.04.2017 06:14 2,2 C 1,7 C 0,0 C 92 % 1 lf 1017,2 hPa 0,0 l/m 0 min 0 min 14 W/m 6,3 km/h (2 Bft) 100,00 %
29.04.2017 06:16 2,2 C 1,7 C 0,0 C 92 % 1 lf 1017,2 hPa 0,0 l/m 0 min 0 min 14 W/m 6,3 km/h (2 Bft) 100,00 %
29.04.2017 06:18 2,2 C 1,7 C 0,0 C 92 % 1 lf 1017,2 hPa 0,0 l/m 0 min 0 min 14 W/m 6,3 km/h (2 Bft) 95,74 %
29.04.2017 06:20 2,1 C 1,1 C 0,0 C 92 % 1 lf 1017,1 hPa 0,0 l/m 0 min 0 min 15 W/m 6,3 km/h (2 Bft) 100,00 %
29.04.2017 06:22 2,1 C 1,1 C 0,0 C 92 % 1 lf 1017,1 hPa 0,0 l/m 0 min 0 min 16 W/m 6,3 km/h (2 Bft) 94,29 %
29.04.2017 06:24 2,1 C 1,1 C 0,0 C 92 % 1 lf 1017,1 hPa 0,0 l/m 0 min 0 min 17 W/m 4,2 km/h (1 Bft) 100,00 %
29.04.2017 06:26 2,1 C 1,1 C 0,0 C 92 % 1 lf 1017,1 hPa 0,0 l/m 0 min 0 min 18 W/m 4,2 km/h (1 Bft) 100,00 %
29.04.2017 06:28 2,1 C 1,1 C 0,0 C 92 % 1 lf 1017,1 hPa 0,0 l/m 0 min 0 min 18 W/m 4,2 km/h (1 Bft) 93,62 %
29.04.2017 06:30 2,1 C 1,1 C 0,0 C 92 % 1 lf 1017,1 hPa 0,0 l/m 0 min 0 min 19 W/m 4,2 km/h (1 Bft) 95,74 %
29.04.2017 06:32 2,0 C 1,1 C 0,0 C 92 % 2 lf 1017,1 hPa 0,0 l/m 2 min 0 min 20 W/m 4,2 km/h (1 Bft) 97,83 %
29.04.2017 06:34 2,0 C 1,1 C 0,0 C 92 % 2 lf 1017,1 hPa 0,0 l/m 0 min 0 min 21 W/m 4,2 km/h (1 Bft) 95,74 %
29.04.2017 06:36 2,0 C 1,1 C -0,6 C 92 % 2 lf 1017,2 hPa 0,0 l/m 0 min 0 min 22 W/m 2,1 km/h (1 Bft) 95,74 %
29.04.2017 06:38 2,0 C 0,6 C -0,6 C 92 % 2 lf 1017,2 hPa 0,0 l/m 0 min 0 min 23 W/m 0,0 km/h (0 Bft) 95,74 %
29.04.2017 06:40 1,9 C 0,6 C -0,6 C 92 % 2 lf 1017,2 hPa 0,0 l/m 0 min 0 min 23 W/m 0,0 km/h (0 Bft) 93,62 %
29.04.2017 06:42 1,9 C 0,6 C -0,6 C 92 % 2 lf 1017,1 hPa 0,0 l/m 0 min 0 min 24 W/m 2,1 km/h (1 Bft) 97,87 %
29.04.2017 06:44 1,9 C 0,6 C -0,6 C 92 % 2 lf 1017,2 hPa 0,0 l/m 0 min 0 min 25 W/m 2,1 km/h (1 Bft) 95,65 %
29.04.2017 06:46 1,9 C 1,1 C -0,6 C 92 % 2 lf 1017,1 hPa 0,0 l/m 0 min 0 min 25 W/m 0,0 km/h (0 Bft) 97,87 %
29.04.2017 06:48 1,8 C 1,1 C -0,6 C 92 % 2 lf 1017,1 hPa 0,0 l/m 0 min 0 min 26 W/m 0,0 km/h (0 Bft) 97,87 %
29.04.2017 06:50 1,8 C 1,1 C -0,6 C 92 % 2 lf 1017,1 hPa 0,0 l/m 0 min 0 min 26 W/m 0,0 km/h (0 Bft) 93,10 %
29.04.2017 06:52 1,8 C 1,1 C -0,6 C 92 % 2 lf 1017,1 hPa 0,0 l/m 0 min 0 min 28 W/m 0,0 km/h (0 Bft) 100,00 %
29.04.2017 06:54 1,8 C 1,1 C -0,6 C 92 % 2 lf 1017,1 hPa 0,0 l/m 0 min 0 min 30 W/m 0,0 km/h (0 Bft) 97,83 %
29.04.2017 06:56 1,8 C 1,1 C -0,6 C 92 % 2 lf 1017,2 hPa 0,0 l/m 0 min 0 min 32 W/m 0,0 km/h (0 Bft) 100,00 %
29.04.2017 06:58 1,7 C 1,1 C -0,6 C 92 % 2 lf 1017,2 hPa 0,0 l/m 2 min 0 min 66 W/m 4,2 km/h (1 Bft) 95,74 %
29.04.2017 07:00 1,7 C 1,1 C -0,6 C 92 % 2 lf 1017,2 hPa 0,0 l/m 2 min 0 min 75 W/m 4,2 km/h (1 Bft) 97,87 %
29.04.2017 07:02 1,7 C 1,1 C 0,0 C 92 % 2 lf 1017,1 hPa 0,0 l/m 2 min 0 min 80 W/m 6,3 km/h (2 Bft) 95,74 %
29.04.2017 07:04 1,7 C 1,7 C 0,0 C 92 % 2 lf 1017,2 hPa 0,0 l/m 2 min 0 min 76 W/m 6,3 km/h (2 Bft) 97,87 %
29.04.2017 07:06 1,6 C 1,7 C 0,0 C 92 % 2 lf 1017,2 hPa 0,0 l/m 2 min 0 min 84 W/m 0,0 km/h (0 Bft) 97,83 %
29.04.2017 07:08 1,6 C 1,7 C 0,0 C 92 % 2 lf 1017,2 hPa 0,0 l/m 2 min 0 min 95 W/m 0,0 km/h (0 Bft) 95,74 %
29.04.2017 07:10 1,6 C 1,7 C 0,0 C 92 % 2 lf 1017,2 hPa 0,0 l/m 2 min 0 min 100 W/m 0,0 km/h (0 Bft) 97,87 %
29.04.2017 07:12 1,6 C 1,7 C 0,0 C 92 % 2 lf 1017,2 hPa 0,0 l/m 2 min 0 min 105 W/m 0,0 km/h (0 Bft) 92,45 %
29.04.2017 07:14 1,6 C 1,7 C 0,0 C 92 % 2 lf 1017,1 hPa 0,0 l/m 2 min 0 min 111 W/m 0,0 km/h (0 Bft) 95,45 %
29.04.2017 07:16 1,5 C 1,7 C 0,0 C 92 % 2 lf 1017,2 hPa 0,0 l/m 2 min 0 min 116 W/m 6,3 km/h (2 Bft) 93,48 %
29.04.2017 07:18 1,5 C 2,2 C 0,0 C 91 % 2 lf 1017,1 hPa 0,0 l/m 2 min 0 min 121 W/m 6,3 km/h (2 Bft) 91,49 %
29.04.2017 07:20 1,5 C 2,2 C 0,6 C 92 % 2 lf 1017,2 hPa 0,0 l/m 2 min 0 min 126 W/m 6,3 km/h (2 Bft) 94,92 %
29.04.2017 07:22 1,5 C 2,2 C 0,6 C 92 % 2 lf 1017,1 hPa 0,0 l/m 2 min 0 min 130 W/m 8,4 km/h (2 Bft) 94,29 %
29.04.2017 07:24 1,6 C 2,2 C 0,6 C 92 % 1 lf 1017,2 hPa 0,0 l/m 2 min 0 min 136 W/m 6,3 km/h (2 Bft) 93,62 %
29.04.2017 07:26 1,5 C 2,2 C 0,6 C 92 % 1 lf 1017,2 hPa 0,0 l/m 2 min 0 min 141 W/m 4,2 km/h (1 Bft) 93,62 %
29.04.2017 07:28 1,5 C 2,2 C 0,6 C 92 % 1 lf 1017,2 hPa 0,0 l/m 2 min 0 min 148 W/m 8,4 km/h (2 Bft) 95,65 %
29.04.2017 07:30 1,6 C 2,2 C 0,6 C 92 % 1 lf 1017,2 hPa 0,0 l/m 2 min 0 min 154 W/m 8,4 km/h (2 Bft) 95,74 %
29.04.2017 07:32 1,6 C 2,8 C 1,1 C 92 % 1 lf 1017,1 hPa 0,0 l/m 2 min 0 min 160 W/m 8,4 km/h (2 Bft) 93,62 %
29.04.2017 07:34 1,7 C 2,8 C 1,1 C 92 % 1 lf 1017,1 hPa 0,0 l/m 2 min 0 min 166 W/m 8,4 km/h (2 Bft) 93,62 %
29.04.2017 07:36 1,7 C 2,8 C 1,1 C 92 % 0 lf 1017,2 hPa 0,0 l/m 2 min 0 min 172 W/m 6,3 km/h (2 Bft) 91,49 %
29.04.2017 07:38 1,8 C 2,8 C 1,1 C 92 % 0 lf 1017,1 hPa 0,0 l/m 2 min 0 min 180 W/m 8,4 km/h (2 Bft) 95,74 %
29.04.2017 07:40 1,8 C 3,3 C 1,1 C 92 % 0 lf 1017,1 hPa 0,0 l/m 2 min 0 min 186 W/m 8,4 km/h (2 Bft) 95,65 %
29.04.2017 07:42 1,9 C 3,3 C 1,1 C 93 % 0 lf 1017,1 hPa 0,0 l/m 2 min 0 min 193 W/m 8,4 km/h (2 Bft) 93,62 %
29.04.2017 07:44 1,9 C 3,3 C 1,7 C 93 % 0 lf 1017,2 hPa 0,0 l/m 2 min 0 min 198 W/m 6,3 km/h (2 Bft) 93,62 %
29.04.2017 07:46 2,0 C 3,3 C 1,7 C 93 % 0 lf 1017,2 hPa 0,0 l/m 2 min 0 min 206 W/m 6,3 km/h (2 Bft) 95,74 %
29.04.2017 07:48 2,1 C 3,3 C 1,7 C 93 % 0 lf 1017,2 hPa 0,0 l/m 2 min 0 min 212 W/m 8,4 km/h (2 Bft) 93,62 %
29.04.2017 07:50 2,1 C 3,3 C 1,7 C 93 % 0 lf 1017,3 hPa 0,0 l/m 2 min 0 min 218 W/m 6,3 km/h (2 Bft) 94,83 %
29.04.2017 07:52 2,1 C 3,9 C 1,7 C 93 % 0 lf 1017,3 hPa 0,0 l/m 2 min 0 min 224 W/m 8,4 km/h (2 Bft) 100,00 %
29.04.2017 07:54 2,2 C 3,9 C 1,7 C 93 % 0 lf 1017,3 hPa 0,0 l/m 2 min 0 min 230 W/m 8,4 km/h (2 Bft) 97,87 %
29.04.2017 07:56 2,3 C 3,9 C 2,2 C 93 % 0 lf 1017,3 hPa 0,0 l/m 2 min 0 min 238 W/m 10,5 km/h (2 Bft) 100,00 %
29.04.2017 07:58 2,3 C 3,9 C 2,2 C 93 % 0 lf 1017,3 hPa 0,0 l/m 2 min 0 min 243 W/m 8,4 km/h (2 Bft) 95,74 %
29.04.2017 08:00 2,4 C 3,9 C 2,2 C 93 % 0 lf 1017,3 hPa 0,0 l/m 2 min 0 min 248 W/m 8,4 km/h (2 Bft) 100,00 %
29.04.2017 08:02 2,4 C 4,4 C 2,2 C 93 % 0 lf 1017,3 hPa 0,0 l/m 2 min 0 min 255 W/m 8,4 km/h (2 Bft) 95,74 %
29.04.2017 08:04 2,6 C 4,4 C 2,2 C 93 % 0 lf 1017,3 hPa 0,0 l/m 2 min 0 min 261 W/m 8,4 km/h (2 Bft) 100,00 %
29.04.2017 08:06 2,6 C 4,4 C 2,2 C 94 % 0 lf 1017,4 hPa 0,0 l/m 2 min 0 min 268 W/m 8,4 km/h (2 Bft) 95,74 %
29.04.2017 08:08 2,7 C 4,4 C 2,2 C 94 % 0 lf 1017,4 hPa 0,0 l/m 2 min 0 min 276 W/m 10,5 km/h (2 Bft) 95,74 %
29.04.2017 08:10 2,7 C 4,4 C 2,8 C 94 % 0 lf 1017,4 hPa 0,0 l/m 2 min 0 min 282 W/m 8,4 km/h (2 Bft) 95,74 %
29.04.2017 08:12 2,8 C 5,0 C 2,8 C 94 % 0 lf 1017,4 hPa 0,0 l/m 2 min 0 min 288 W/m 8,4 km/h (2 Bft) 95,74 %
29.04.2017 08:14 2,8 C 5,0 C 2,8 C 94 % 0 lf 1017,4 hPa 0,0 l/m 2 min 0 min 294 W/m 8,4 km/h (2 Bft) 97,83 %
29.04.2017 08:16 2,9 C 5,0 C 2,8 C 94 % 0 lf 1017,4 hPa 0,0 l/m 2 min 0 min 301 W/m 8,4 km/h (2 Bft) 97,87 %
29.04.2017 08:18 3,0 C 5,0 C 2,8 C 94 % 0 lf 1017,4 hPa 0,0 l/m 2 min 0 min 307 W/m 8,4 km/h (2 Bft) 97,87 %
29.04.2017 08:20 3,1 C 5,0 C 2,8 C 94 % 0 lf 1017,4 hPa 0,0 l/m 2 min 0 min 314 W/m 6,3 km/h (2 Bft) 98,31 %
29.04.2017 08:22 3,2 C 5,0 C 3,3 C 94 % 0 lf 1017,4 hPa 0,0 l/m 2 min 0 min 320 W/m 8,4 km/h (2 Bft) 97,14 %
29.04.2017 08:24 3,2 C 5,6 C 3,3 C 94 % 0 lf 1017,5 hPa 0,0 l/m 2 min 0 min 326 W/m 8,4 km/h (2 Bft) 97,87 %
29.04.2017 08:26 3,3 C 5,6 C 3,3 C 94 % 0 lf 1017,5 hPa 0,0 l/m 2 min 0 min 332 W/m 8,4 km/h (2 Bft) 93,48 %
29.04.2017 08:28 3,4 C 5,6 C 3,3 C 94 % 0 lf 1017,4 hPa 0,0 l/m 2 min 0 min 338 W/m 10,5 km/h (2 Bft) 95,74 %
29.04.2017 08:30 3,6 C 5,6 C 3,3 C 94 % 0 lf 1017,5 hPa 0,0 l/m 2 min 0 min 343 W/m 8,4 km/h (2 Bft) 97,87 %
29.04.2017 08:32 3,7 C 6,1 C 3,3 C 95 % 0 lf 1017,5 hPa 0,0 l/m 2 min 0 min 351 W/m 8,4 km/h (2 Bft) 97,87 %
29.04.2017 08:34 3,7 C 6,1 C 3,3 C 94 % 0 lf 1017,5 hPa 0,0 l/m 2 min 0 min 357 W/m 6,3 km/h (2 Bft) 97,87 %
29.04.2017 08:36 3,8 C 7,2 C 3,9 C 94 % 0 lf 1017,5 hPa 0,0 l/m 2 min 0 min 362 W/m 8,4 km/h (2 Bft) 97,87 %
29.04.2017 08:38 3,9 C 9,4 C 3,9 C 94 % 0 lf 1017,5 hPa 0,0 l/m 2 min 0 min 367 W/m 6,3 km/h (2 Bft) 95,65 %
29.04.2017 08:40 4,0 C 11,7 C 3,9 C 95 % 0 lf 1017,5 hPa 0,0 l/m 2 min 0 min 373 W/m 8,4 km/h (2 Bft) 95,74 %
29.04.2017 08:42 4,1 C 12,8 C 3,9 C 95 % 0 lf 1017,5 hPa 0,0 l/m 2 min 0 min 379 W/m 8,4 km/h (2 Bft) 97,87 %
29.04.2017 08:44 4,2 C 13,9 C 3,9 C 95 % 0 lf 1017,4 hPa 0,0 l/m 2 min 0 min 384 W/m 8,4 km/h (2 Bft) 95,74 %
29.04.2017 08:46 4,3 C 15,6 C 4,4 C 95 % 0 lf 1017,4 hPa 0,0 l/m 2 min 0 min 390 W/m 10,5 km/h (2 Bft) 97,87 %
29.04.2017 08:48 4,5 C 15,6 C 4,4 C 95 % 0 lf 1017,5 hPa 0,0 l/m 2 min 0 min 396 W/m 8,4 km/h (2 Bft) 95,74 %
29.04.2017 08:50 4,7 C 16,1 C 4,4 C 95 % 0 lf 1017,5 hPa 0,0 l/m 2 min 0 min 402 W/m 8,4 km/h (2 Bft) 98,28 %
29.04.2017 08:52 4,8 C 15,6 C 4,4 C 95 % 0 lf 1017,5 hPa 0,0 l/m 2 min 0 min 408 W/m 8,4 km/h (2 Bft) 100,00 %
29.04.2017 08:54 4,9 C 16,1 C 4,4 C 95 % 0 lf 1017,6 hPa 0,0 l/m 2 min 0 min 421 W/m 10,5 km/h (2 Bft) 97,87 %
29.04.2017 08:56 5,1 C 15,6 C 5,0 C 95 % 0 lf 1017,5 hPa 0,0 l/m 2 min 0 min 439 W/m 8,4 km/h (2 Bft) 95,74 %
29.04.2017 08:58 5,3 C 17,2 C 5,0 C 95 % 0 lf 1017,6 hPa 0,0 l/m 2 min 0 min 440 W/m 8,4 km/h (2 Bft) 97,87 %
29.04.2017 09:00 5,4 C 17,2 C 5,0 C 95 % 0 lf 1017,6 hPa 0,0 l/m 2 min 0 min 445 W/m 8,4 km/h (2 Bft) 97,87 %
29.04.2017 09:02 5,6 C 17,8 C 5,0 C 95 % 0 lf 1017,6 hPa 0,0 l/m 2 min 0 min 450 W/m 12,6 km/h (3 Bft) 97,83 %
29.04.2017 09:04 5,8 C 16,7 C 5,6 C 95 % 0 lf 1017,7 hPa 0,0 l/m 2 min 0 min 455 W/m 14,6 km/h (3 Bft) 97,87 %
29.04.2017 09:06 5,9 C 16,1 C 5,6 C 95 % 0 lf 1017,6 hPa 0,0 l/m 2 min 0 min 460 W/m 12,6 km/h (3 Bft) 97,87 %
29.04.2017 09:08 6,1 C 15,6 C 5,6 C 95 % 0 lf 1017,6 hPa 0,0 l/m 2 min 0 min 465 W/m 8,4 km/h (2 Bft) 97,87 %
29.04.2017 09:10 6,3 C 17,2 C 5,6 C 95 % 0 lf 1017,7 hPa 0,0 l/m 2 min 0 min 470 W/m 8,4 km/h (2 Bft) 97,87 %
29.04.2017 09:12 6,5 C 17,2 C 6,1 C 95 % 0 lf 1017,6 hPa 0,0 l/m 2 min 0 min 475 W/m 10,5 km/h (2 Bft) 97,87 %
29.04.2017 09:14 6,7 C 17,2 C 6,1 C 94 % 0 lf 1017,6 hPa 0,0 l/m 2 min 0 min 480 W/m 10,5 km/h (2 Bft) 95,65 %
29.04.2017 09:16 6,9 C 16,1 C 6,1 C 94 % 0 lf 1017,6 hPa 0,0 l/m 2 min 0 min 485 W/m 8,4 km/h (2 Bft) 95,74 %
29.04.2017 09:18 7,1 C 17,8 C 6,1 C 93 % 0 lf 1017,6 hPa 0,0 l/m 2 min 0 min 490 W/m 6,3 km/h (2 Bft) 93,62 %
29.04.2017 09:20 7,2 C 18,9 C 6,1 C 92 % 0 lf 1017,7 hPa 0,0 l/m 2 min 0 min 495 W/m 8,4 km/h (2 Bft) 96,61 %
29.04.2017 09:22 7,4 C 20,0 C 6,1 C 91 % 0 lf 1017,7 hPa 0,0 l/m 2 min 0 min 500 W/m 10,5 km/h (2 Bft) 97,14 %
29.04.2017 09:24 7,5 C 20,0 C 6,1 C 90 % 0 lf 1017,7 hPa 0,0 l/m 2 min 0 min 505 W/m 6,3 km/h (2 Bft) 93,48 %
29.04.2017 09:26 7,7 C 20,6 C 6,7 C 89 % 0 lf 1017,7 hPa 0,0 l/m 2 min 0 min 510 W/m 8,4 km/h (2 Bft) 93,62 %
29.04.2017 09:28 7,8 C 20,0 C 7,8 C 87 % 0 lf 1017,7 hPa 0,0 l/m 2 min 0 min 515 W/m 6,3 km/h (2 Bft) 97,87 %
29.04.2017 09:30 8,0 C 18,9 C 7,8 C 86 % 0 lf 1017,6 hPa 0,0 l/m 2 min 0 min 520 W/m 8,4 km/h (2 Bft) 97,87 %
29.04.2017 09:32 8,2 C 18,9 C 7,2 C 84 % 0 lf 1017,7 hPa 0,0 l/m 2 min 0 min 525 W/m 6,3 km/h (2 Bft) 97,87 %
29.04.2017 09:34 8,3 C 17,2 C 7,2 C 83 % 0 lf 1017,6 hPa 0,0 l/m 2 min 0 min 529 W/m 8,4 km/h (2 Bft) 97,87 %
29.04.2017 09:36 8,4 C 17,8 C 7,8 C 81 % 0 lf 1017,6 hPa 0,0 l/m 2 min 0 min 534 W/m 8,4 km/h (2 Bft) 95,65 %
29.04.2017 09:38 8,6 C 17,8 C 9,4 C 80 % 0 lf 1017,6 hPa 0,0 l/m 2 min 0 min 539 W/m 10,5 km/h (2 Bft) 93,62 %
29.04.2017 09:40 8,8 C 18,3 C 10,6 C 79 % 0 lf 1017,7 hPa 0,0 l/m 2 min 0 min 544 W/m 10,5 km/h (2 Bft) 93,62 %
29.04.2017 09:42 8,9 C 18,9 C 11,1 C 78 % 0 lf 1017,7 hPa 0,0 l/m 2 min 0 min 548 W/m 6,3 km/h (2 Bft) 95,74 %
29.04.2017 09:44 9,1 C 21,1 C 11,1 C 77 % 0 lf 1017,7 hPa 0,0 l/m 2 min 0 min 553 W/m 10,5 km/h (2 Bft) 95,74 %
29.04.2017 09:46 9,2 C 21,7 C 11,1 C 76 % 0 lf 1017,7 hPa 0,0 l/m 2 min 0 min 558 W/m 8,4 km/h (2 Bft) 95,74 %
29.04.2017 09:48 9,3 C 21,1 C 11,7 C 75 % 0 lf 1017,7 hPa 0,0 l/m 2 min 0 min 562 W/m 10,5 km/h (2 Bft) 95,74 %
29.04.2017 09:50 9,4 C 20,0 C 12,2 C 75 % 0 lf 1017,7 hPa 0,0 l/m 2 min 0 min 567 W/m 8,4 km/h (2 Bft) 93,10 %
29.04.2017 09:52 9,6 C 19,4 C 13,3 C 73 % 0 lf 1017,6 hPa 0,0 l/m 2 min 0 min 571 W/m 8,4 km/h (2 Bft) 94,29 %
29.04.2017 09:54 9,7 C 17,8 C 15,0 C 73 % 0 lf 1017,6 hPa 0,0 l/m 2 min 0 min 576 W/m 8,4 km/h (2 Bft) 95,74 %
29.04.2017 09:56 9,8 C 17,2 C 15,6 C 72 % 0 lf 1017,7 hPa 0,0 l/m 2 min 0 min 580 W/m 14,6 km/h (3 Bft) 93,62 %
29.04.2017 09:58 9,9 C 17,2 C 15,6 C 71 % 0 lf 1017,6 hPa 0,0 l/m 2 min 0 min 585 W/m 8,4 km/h (2 Bft) 95,74 %
29.04.2017 10:00 10,1 C 17,8 C 16,7 C 70 % 0 lf 1017,6 hPa 0,0 l/m 2 min 0 min 589 W/m 8,4 km/h (2 Bft) 93,62 %
29.04.2017 10:02 10,2 C 20,0 C 15,6 C 69 % 0 lf 1017,7 hPa 0,0 l/m 2 min 0 min 631 W/m 6,3 km/h (2 Bft) 95,65 %
29.04.2017 10:04 10,2 C 21,1 C 15,6 C 69 % 0 lf 1017,7 hPa 0,0 l/m 2 min 0 min 657 W/m 10,5 km/h (2 Bft) 95,74 %
29.04.2017 10:06 10,3 C 21,7 C 15,6 C 68 % 0 lf 1017,6 hPa 0,0 l/m 2 min 0 min 665 W/m 10,5 km/h (2 Bft) 93,62 %
29.04.2017 10:08 10,3 C 21,1 C 15,0 C 68 % 0 lf 1017,6 hPa 0,0 l/m 2 min 0 min 678 W/m 12,6 km/h (3 Bft) 87,23 %
29.04.2017 10:10 10,3 C 21,7 C 15,6 C 68 % 0 lf 1017,6 hPa 0,0 l/m 2 min 0 min 683 W/m 6,3 km/h (2 Bft) 91,49 %
29.04.2017 10:12 10,4 C 21,1 C 16,7 C 68 % 0 lf 1017,6 hPa 0,0 l/m 2 min 0 min 724 W/m 2,1 km/h (1 Bft) 97,83 %
29.04.2017 10:14 10,5 C 22,8 C 17,8 C 69 % 0 lf 1017,6 hPa 0,0 l/m 2 min 0 min 738 W/m 8,4 km/h (2 Bft) 97,87 %
29.04.2017 10:16 10,5 C 20,0 C 16,1 C 68 % 0 lf 1017,6 hPa 0,0 l/m 2 min 0 min 717 W/m 12,6 km/h (3 Bft) 95,74 %
29.04.2017 10:18 10,5 C 16,7 C 13,9 C 66 % 0 lf 1017,6 hPa 0,0 l/m 2 min 0 min 589 W/m 10,5 km/h (2 Bft) 95,74 %
29.04.2017 10:20 10,4 C 14,4 C 12,2 C 66 % 0 lf 1017,7 hPa 0,0 l/m 0 min 0 min 215 W/m 12,6 km/h (3 Bft) 98,28 %
29.04.2017 10:22 10,4 C 13,9 C 11,7 C 66 % 0 lf 1017,6 hPa 0,0 l/m 0 min 0 min 227 W/m 10,5 km/h (2 Bft) 97,22 %
29.04.2017 10:24 10,3 C 13,3 C 10,6 C 66 % 0 lf 1017,7 hPa 0,0 l/m 0 min 0 min 212 W/m 8,4 km/h (2 Bft) 97,83 %
29.04.2017 10:26 10,3 C 12,8 C 10,0 C 66 % 0 lf 1017,7 hPa 0,0 l/m 2 min 0 min 458 W/m 10,5 km/h (2 Bft) 93,62 %
29.04.2017 10:28 10,2 C 12,8 C 10,0 C 66 % 0 lf 1017,8 hPa 0,0 l/m 2 min 0 min 516 W/m 4,2 km/h (1 Bft) 91,49 %
29.04.2017 10:30 10,2 C 13,3 C 10,0 C 66 % 0 lf 1017,8 hPa 0,0 l/m 2 min 0 min 520 W/m 6,3 km/h (2 Bft) 89,36 %
29.04.2017 10:32 10,2 C 15,6 C 11,7 C 65 % 0 lf 1017,8 hPa 0,0 l/m 2 min 0 min 656 W/m 4,2 km/h (1 Bft) 97,87 %
29.04.2017 10:34 10,2 C 15,6 C 11,7 C 66 % 0 lf 1017,8 hPa 0,0 l/m 2 min 0 min 774 W/m 6,3 km/h (2 Bft) 95,74 %
29.04.2017 10:36 10,1 C 13,3 C 10,6 C 65 % 0 lf 1017,8 hPa 0,0 l/m 2 min 0 min 515 W/m 6,3 km/h (2 Bft) 93,48 %
29.04.2017 10:38 10,1 C 12,8 C 10,0 C 65 % 0 lf 1017,8 hPa 0,0 l/m 2 min 0 min 527 W/m 8,4 km/h (2 Bft) 93,62 %
29.04.2017 10:40 10,1 C 12,2 C 10,0 C 65 % 0 lf 1017,8 hPa 0,0 l/m 2 min 0 min 535 W/m 8,4 km/h (2 Bft) 93,62 %
29.04.2017 10:42 10,0 C 12,2 C 10,0 C 66 % 0 lf 1017,8 hPa 0,0 l/m 2 min 0 min 547 W/m 6,3 km/h (2 Bft) 93,62 %
29.04.2017 10:44 10,0 C 11,7 C 10,0 C 66 % 0 lf 1017,7 hPa 0,0 l/m 2 min 0 min 562 W/m 6,3 km/h (2 Bft) 93,62 %
29.04.2017 10:46 10,0 C 15,6 C 13,3 C 66 % 0 lf 1017,7 hPa 0,0 l/m 2 min 0 min 866 W/m 8,4 km/h (2 Bft) 93,48 %
29.04.2017 10:48 10,1 C 18,3 C 16,1 C 67 % 0 lf 1017,7 hPa 0,0 l/m 2 min 0 min 686 W/m 6,3 km/h (2 Bft) 95,74 %
29.04.2017 10:50 10,2 C 18,9 C 17,2 C 67 % 0 lf 1017,8 hPa 0,0 l/m 2 min 0 min 690 W/m 6,3 km/h (2 Bft) 93,22 %
29.04.2017 10:52 10,3 C 21,1 C 17,2 C 68 % 0 lf 1017,8 hPa 0,0 l/m 2 min 0 min 693 W/m 10,5 km/h (2 Bft) 97,14 %
29.04.2017 10:54 10,4 C 22,2 C 17,8 C 67 % 0 lf 1017,8 hPa 0,0 l/m 2 min 0 min 697 W/m 8,4 km/h (2 Bft) 95,74 %
29.04.2017 10:56 10,6 C 22,2 C 17,2 C 65 % 0 lf 1017,8 hPa 0,0 l/m 2 min 0 min 700 W/m 14,6 km/h (3 Bft) 95,74 %
29.04.2017 10:58 10,6 C 22,8 C 16,7 C 64 % 0 lf 1017,8 hPa 0,0 l/m 2 min 0 min 704 W/m 6,3 km/h (2 Bft) 95,65 %
29.04.2017 11:00 10,7 C 22,2 C 16,1 C 63 % 0 lf 1017,8 hPa 0,0 l/m 2 min 0 min 707 W/m 12,6 km/h (3 Bft) 93,62 %
29.04.2017 11:02 10,7 C 20,6 C 13,9 C 62 % 0 lf 1017,8 hPa 0,0 l/m 2 min 0 min 711 W/m 8,4 km/h (2 Bft) 95,74 %
29.04.2017 11:04 10,7 C 20,0 C 12,8 C 62 % 0 lf 1017,8 hPa 0,0 l/m 2 min 0 min 714 W/m 12,6 km/h (3 Bft) 93,62 %
29.04.2017 11:06 10,7 C 19,4 C 12,2 C 61 % 0 lf 1017,8 hPa 0,0 l/m 2 min 0 min 717 W/m 8,4 km/h (2 Bft) 95,74 %
29.04.2017 11:08 10,7 C 19,4 C 11,7 C 61 % 0 lf 1017,8 hPa 0,0 l/m 2 min 0 min 721 W/m 8,4 km/h (2 Bft) 97,87 %
29.04.2017 11:10 10,7 C 20,6 C 12,2 C 60 % 0 lf 1017,8 hPa 0,0 l/m 2 min 0 min 724 W/m 8,4 km/h (2 Bft) 95,65 %
29.04.2017 11:12 10,7 C 22,2 C 13,3 C 61 % 0 lf 1017,8 hPa 0,0 l/m 2 min 0 min 727 W/m 6,3 km/h (2 Bft) 95,74 %
29.04.2017 11:14 10,7 C 23,3 C 16,1 C 61 % 0 lf 1017,8 hPa 0,0 l/m 2 min 0 min 730 W/m 12,6 km/h (3 Bft) 100,00 %
29.04.2017 11:16 10,8 C 22,8 C 16,1 C 61 % 0 lf 1017,8 hPa 0,0 l/m 2 min 0 min 733 W/m 12,6 km/h (3 Bft) 91,49 %
29.04.2017 11:18 10,8 C 23,3 C 16,7 C 59 % 0 lf 1017,8 hPa 0,0 l/m 2 min 0 min 736 W/m 10,5 km/h (2 Bft) 100,00 %
29.04.2017 11:20 10,8 C 23,9 C 17,2 C 59 % 0 lf 1017,8 hPa 0,0 l/m 2 min 0 min 740 W/m 10,5 km/h (2 Bft) 100,00 %
29.04.2017 11:22 10,9 C 24,4 C 17,2 C 60 % 0 lf 1017,8 hPa 0,0 l/m 2 min 0 min 743 W/m 12,6 km/h (3 Bft) 97,14 %
29.04.2017 11:24 11,0 C 23,9 C 17,2 C 58 % 0 lf 1017,8 hPa 0,0 l/m 2 min 0 min 745 W/m 10,5 km/h (2 Bft) 100,00 %
29.04.2017 11:26 11,1 C 19,4 C 17,2 C 58 % 0 lf 1017,8 hPa 0,0 l/m 2 min 0 min 748 W/m 6,3 km/h (2 Bft) 100,00 %
29.04.2017 11:28 11,2 C 19,4 C 18,3 C 58 % 0 lf 1017,8 hPa 0,0 l/m 2 min 0 min 751 W/m 8,4 km/h (2 Bft) 100,00 %
29.04.2017 11:30 11,3 C 20,0 C 19,4 C 60 % 0 lf 1017,8 hPa 0,0 l/m 2 min 0 min 754 W/m 8,4 km/h (2 Bft) 100,00 %
29.04.2017 11:32 11,4 C 18,9 C 17,2 C 58 % 0 lf 1017,8 hPa 0,0 l/m 2 min 0 min 633 W/m 8,4 km/h (2 Bft) 100,00 %
29.04.2017 11:34 11,4 C 17,8 C 15,0 C 58 % 0 lf 1017,8 hPa 0,0 l/m 0 min 0 min 308 W/m 4,2 km/h (1 Bft) 95,65 %
29.04.2017 11:36 11,4 C 17,2 C 14,4 C 57 % 0 lf 1017,8 hPa 0,0 l/m 0 min 0 min 311 W/m 4,2 km/h (1 Bft) 100,00 %
29.04.2017 11:38 11,4 C 14,4 C 13,9 C 57 % 0 lf 1017,8 hPa 0,0 l/m 2 min 0 min 364 W/m 4,2 km/h (1 Bft) 100,00 %
29.04.2017 11:40 11,3 C 13,3 C 13,3 C 56 % 0 lf 1017,8 hPa 0,0 l/m 2 min 0 min 669 W/m 4,2 km/h (1 Bft) 97,87 %
29.04.2017 11:42 11,3 C 12,8 C 12,8 C 58 % 0 lf 1017,8 hPa 0,0 l/m 0 min 0 min 295 W/m 12,6 km/h (3 Bft) 95,74 %
29.04.2017 11:44 11,3 C 12,8 C 12,8 C 58 % 0 lf 1017,8 hPa 0,0 l/m 0 min 0 min 283 W/m 12,6 km/h (3 Bft) 100,00 %
29.04.2017 11:46 11,2 C 12,8 C 12,8 C 59 % 0 lf 1017,8 hPa 0,0 l/m 0 min 0 min 272 W/m 12,6 km/h (3 Bft) 100,00 %
29.04.2017 11:48 11,2 C 12,8 C 12,2 C 59 % 0 lf 1017,8 hPa 0,0 l/m 0 min 0 min 269 W/m 10,5 km/h (2 Bft) 100,00 %
29.04.2017 11:50 11,1 C 12,8 C 12,2 C 59 % 0 lf 1017,9 hPa 0,0 l/m 0 min 0 min 297 W/m 12,6 km/h (3 Bft) 100,00 %
29.04.2017 11:52 11,1 C 15,6 C 13,9 C 60 % 0 lf 1017,8 hPa 0,0 l/m 2 min 0 min 378 W/m 8,4 km/h (2 Bft) 100,00 %
29.04.2017 11:54 11,2 C 17,2 C 16,1 C 60 % 0 lf 1017,8 hPa 0,0 l/m 2 min 0 min 378 W/m 8,4 km/h (2 Bft) 100,00 %
29.04.2017 11:56 11,2 C 19,4 C 17,8 C 60 % 0 lf 1017,8 hPa 0,0 l/m 2 min 0 min 942 W/m 4,2 km/h (1 Bft) 100,00 %
29.04.2017 11:58 11,3 C 18,9 C 16,1 C 59 % 0 lf 1017,8 hPa 0,0 l/m 2 min 0 min 476 W/m 6,3 km/h (2 Bft) 97,87 %
29.04.2017 12:00 11,3 C 18,3 C 14,4 C 59 % 0 lf 1017,8 hPa 0,0 l/m 0 min 0 min 271 W/m 4,2 km/h (1 Bft) 100,00 %
29.04.2017 12:02 11,3 C 17,2 C 13,9 C 59 % 0 lf 1017,8 hPa 0,0 l/m 0 min 0 min 287 W/m 6,3 km/h (2 Bft) 100,00 %
29.04.2017 12:04 11,4 C 18,9 C 15,0 C 59 % 0 lf 1017,8 hPa 0,0 l/m 0 min 0 min 279 W/m 10,5 km/h (2 Bft) 100,00 %
29.04.2017 12:06 11,4 C 22,2 C 16,7 C 59 % 0 lf 1017,8 hPa 0,0 l/m 2 min 0 min 852 W/m 12,6 km/h (3 Bft) 100,00 %
29.04.2017 12:08 11,6 C 23,3 C 18,3 C 62 % 0 lf 1017,8 hPa 0,0 l/m 2 min 0 min 967 W/m 16,7 km/h (3 Bft) 100,00 %
29.04.2017 12:10 11,6 C 23,9 C 18,3 C 58 % 0 lf 1017,8 hPa 0,0 l/m 2 min 0 min 967 W/m 10,5 km/h (2 Bft) 100,00 %
29.04.2017 12:12 11,7 C 25,0 C 19,4 C 59 % 0 lf 1017,8 hPa 0,0 l/m 2 min 0 min 1039 W/m 12,6 km/h (3 Bft) 97,87 %
29.04.2017 12:14 11,9 C 25,6 C 20,6 C 60 % 0 lf 1017,8 hPa 0,0 l/m 2 min 0 min 1056 W/m 12,6 km/h (3 Bft) 100,00 %
29.04.2017 12:16 12,1 C 26,1 C 21,1 C 59 % 0 lf 1017,8 hPa 0,0 l/m 2 min 0 min 807 W/m 8,4 km/h (2 Bft) 97,87 %
29.04.2017 12:18 12,2 C 26,1 C 20,0 C 57 % 0 lf 1017,8 hPa 0,0 l/m 2 min 0 min 809 W/m 10,5 km/h (2 Bft) 100,00 %
29.04.2017 12:20 12,3 C 22,8 C 16,7 C 55 % 0 lf 1017,8 hPa 0,0 l/m 2 min 0 min 1039 W/m 6,3 km/h (2 Bft) 98,28 %
29.04.2017 12:22 12,3 C 20,0 C 15,6 C 56 % 0 lf 1017,8 hPa 0,0 l/m 2 min 0 min 739 W/m 12,6 km/h (3 Bft) 100,00 %
29.04.2017 12:24 12,4 C 17,2 C 15,0 C 56 % 0 lf 1017,8 hPa 0,0 l/m 2 min 0 min 524 W/m 10,5 km/h (2 Bft) 100,00 %
29.04.2017 12:26 12,4 C 16,7 C 14,4 C 57 % 0 lf 1017,8 hPa 0,0 l/m 0 min 0 min 301 W/m 8,4 km/h (2 Bft) 97,87 %
29.04.2017 12:28 12,4 C 15,6 C 13,9 C 56 % 0 lf 1017,8 hPa 0,0 l/m 0 min 0 min 269 W/m 4,2 km/h (1 Bft) 97,87 %
29.04.2017 12:30 12,3 C 15,6 C 12,8 C 56 % 0 lf 1017,8 hPa 0,0 l/m 0 min 0 min 256 W/m 12,6 km/h (3 Bft) 93,62 %
29.04.2017 12:32 12,3 C 15,0 C 12,2 C 55 % 0 lf 1017,8 hPa 0,0 l/m 0 min 0 min 260 W/m 8,4 km/h (2 Bft) 97,83 %
29.04.2017 12:34 12,2 C 15,0 C 12,2 C 56 % 0 lf 1017,8 hPa 0,0 l/m 0 min 0 min 296 W/m 8,4 km/h (2 Bft) 95,74 %
29.04.2017 12:36 12,1 C 15,6 C 12,2 C 55 % 0 lf 1017,8 hPa 0,0 l/m 2 min 0 min 383 W/m 10,5 km/h (2 Bft) 97,87 %
29.04.2017 12:38 12,0 C 16,7 C 12,2 C 54 % 0 lf 1017,8 hPa 0,0 l/m 2 min 0 min 457 W/m 10,5 km/h (2 Bft) 95,74 %
29.04.2017 12:40 11,9 C 18,9 C 12,8 C 56 % 0 lf 1017,8 hPa 0,0 l/m 0 min 0 min 383 W/m 8,4 km/h (2 Bft) 93,62 %
29.04.2017 12:42 11,9 C 21,1 C 13,3 C 55 % 0 lf 1017,8 hPa 0,0 l/m 2 min 0 min 991 W/m 10,5 km/h (2 Bft) 95,74 %
29.04.2017 12:44 11,9 C 22,2 C 13,3 C 56 % 0 lf 1017,7 hPa 0,0 l/m 2 min 0 min 1029 W/m 10,5 km/h (2 Bft) 95,65 %
29.04.2017 12:46 11,9 C 20,0 C 13,3 C 55 % 0 lf 1017,7 hPa 0,0 l/m 2 min 0 min 981 W/m 10,5 km/h (2 Bft) 95,74 %
29.04.2017 12:48 11,9 C 17,8 C 12,8 C 55 % 0 lf 1017,7 hPa 0,0 l/m 0 min 0 min 324 W/m 12,6 km/h (3 Bft) 93,62 %
29.04.2017 12:50 11,8 C 16,7 C 11,7 C 55 % 0 lf 1017,7 hPa 0,0 l/m 0 min 0 min 272 W/m 12,6 km/h (3 Bft) 94,92 %
29.04.2017 12:52 11,8 C 16,1 C 11,7 C 54 % 0 lf 1017,7 hPa 0,0 l/m 0 min 0 min 265 W/m 8,4 km/h (2 Bft) 97,14 %
29.04.2017 12:54 11,7 C 16,1 C 11,7 C 54 % 0 lf 1017,7 hPa 0,0 l/m 0 min 0 min 279 W/m 6,3 km/h (2 Bft) 93,62 %
29.04.2017 12:56 11,7 C 15,6 C 11,7 C 55 % 0 lf 1017,7 hPa 0,0 l/m 0 min 0 min 234 W/m 8,4 km/h (2 Bft) 93,48 %
29.04.2017 12:58 11,7 C 15,6 C 12,2 C 56 % 0 lf 1017,6 hPa 0,0 l/m 0 min 0 min 245 W/m 14,6 km/h (3 Bft) 93,62 %
29.04.2017 13:00 11,6 C 15,0 C 11,7 C 55 % 0 lf 1017,7 hPa 0,0 l/m 0 min 0 min 259 W/m 14,6 km/h (3 Bft) 95,74 %
29.04.2017 13:02 11,6 C 15,0 C 11,7 C 55 % 0 lf 1017,6 hPa 0,0 l/m 0 min 0 min 272 W/m 10,5 km/h (2 Bft) 95,74 %
29.04.2017 13:04 11,5 C 14,4 C 12,2 C 56 % 0 lf 1017,7 hPa 0,0 l/m 0 min 0 min 284 W/m 6,3 km/h (2 Bft) 91,49 %
29.04.2017 13:06 11,4 C 14,4 C 12,8 C 56 % 0 lf 1017,6 hPa 0,0 l/m 0 min 0 min 291 W/m 8,4 km/h (2 Bft) 89,13 %
29.04.2017 13:08 11,4 C 14,4 C 12,8 C 56 % 0 lf 1017,6 hPa 0,0 l/m 0 min 0 min 305 W/m 10,5 km/h (2 Bft) 89,36 %
29.04.2017 13:10 11,4 C 15,0 C 12,8 C 56 % 0 lf 1017,6 hPa 0,0 l/m 0 min 0 min 348 W/m 6,3 km/h (2 Bft) 93,62 %
29.04.2017 13:12 11,4 C 18,3 C 13,3 C 56 % 0 lf 1017,6 hPa 0,0 l/m 2 min 0 min 767 W/m 4,2 km/h (1 Bft) 93,62 %
29.04.2017 13:14 11,4 C 21,1 C 13,9 C 55 % 0 lf 1017,6 hPa 0,0 l/m 2 min 0 min 1080 W/m 4,2 km/h (1 Bft) 93,62 %
29.04.2017 13:16 11,4 C 20,0 C 14,4 C 56 % 0 lf 1017,5 hPa 0,0 l/m 2 min 0 min 1056 W/m 4,2 km/h (1 Bft) 89,36 %
29.04.2017 13:18 11,5 C 19,4 C 14,4 C 56 % 0 lf 1017,5 hPa 0,0 l/m 2 min 0 min 981 W/m 8,4 km/h (2 Bft) 93,48 %
29.04.2017 13:20 11,6 C 18,3 C 13,9 C 54 % 0 lf 1017,5 hPa 0,0 l/m 2 min 0 min 491 W/m 6,3 km/h (2 Bft) 95,74 %
29.04.2017 13:22 11,7 C 17,2 C 13,9 C 54 % 0 lf 1017,5 hPa 0,0 l/m 2 min 0 min 609 W/m 10,5 km/h (2 Bft) 93,62 %
29.04.2017 13:24 11,7 C 18,9 C 14,4 C 55 % 0 lf 1017,5 hPa 0,0 l/m 2 min 0 min 770 W/m 10,5 km/h (2 Bft) 91,49 %
29.04.2017 13:26 11,8 C 18,9 C 14,4 C 55 % 0 lf 1017,5 hPa 0,0 l/m 2 min 0 min 770 W/m 8,4 km/h (2 Bft) 93,62 %
29.04.2017 13:28 11,8 C 17,8 C 13,9 C 55 % 0 lf 1017,5 hPa 0,0 l/m 0 min 0 min 350 W/m 8,4 km/h (2 Bft) 89,36 %
29.04.2017 13:30 11,9 C 16,7 C 13,3 C 53 % 0 lf 1017,5 hPa 0,0 l/m 0 min 0 min 286 W/m 8,4 km/h (2 Bft) 93,48 %
29.04.2017 13:32 11,9 C 16,1 C 13,3 C 53 % 0 lf 1017,5 hPa 0,0 l/m 0 min 0 min 297 W/m 8,4 km/h (2 Bft) 91,49 %
29.04.2017 13:34 11,9 C 16,1 C 12,8 C 53 % 0 lf 1017,4 hPa 0,0 l/m 0 min 0 min 300 W/m 8,4 km/h (2 Bft) 93,62 %
29.04.2017 13:36 11,9 C 15,6 C 13,3 C 54 % 0 lf 1017,5 hPa 0,0 l/m 0 min 0 min 318 W/m 8,4 km/h (2 Bft) 93,62 %
29.04.2017 13:38 11,9 C 15,6 C 13,3 C 55 % 0 lf 1017,5 hPa 0,0 l/m 0 min 0 min 324 W/m 10,5 km/h (2 Bft) 93,62 %
29.04.2017 13:40 11,9 C 15,0 C 13,3 C 54 % 0 lf 1017,5 hPa 0,0 l/m 0 min 0 min 325 W/m 6,3 km/h (2 Bft) 93,62 %
29.04.2017 13:42 11,9 C 15,6 C 13,9 C 53 % 0 lf 1017,5 hPa 0,0 l/m 2 min 0 min 392 W/m 4,2 km/h (1 Bft) 93,48 %
29.04.2017 13:44 11,9 C 19,4 C 13,9 C 54 % 0 lf 1017,4 hPa 0,0 l/m 2 min 0 min 644 W/m 4,2 km/h (1 Bft) 95,74 %
29.04.2017 13:46 12,1 C 22,8 C 15,0 C 55 % 0 lf 1017,4 hPa 0,0 l/m 2 min 0 min 1115 W/m 8,4 km/h (2 Bft) 97,87 %
29.04.2017 13:48 12,2 C 25,0 C 16,1 C 56 % 0 lf 1017,5 hPa 0,0 l/m 2 min 0 min 1114 W/m 8,4 km/h (2 Bft) 100,00 %
29.04.2017 13:50 12,4 C 25,6 C 16,1 C 55 % 0 lf 1017,4 hPa 0,0 l/m 2 min 0 min 839 W/m 8,4 km/h (2 Bft) 94,83 %
29.04.2017 13:52 12,7 C 23,3 C 16,7 C 56 % 0 lf 1017,3 hPa 0,0 l/m 2 min 0 min 839 W/m 6,3 km/h (2 Bft) 97,22 %
29.04.2017 13:54 12,8 C 21,1 C 16,7 C 54 % 0 lf 1017,3 hPa 0,0 l/m 2 min 0 min 672 W/m 12,6 km/h (3 Bft) 100,00 %
29.04.2017 13:56 13,0 C 18,9 C 15,6 C 53 % 0 lf 1017,3 hPa 0,0 l/m 0 min 0 min 372 W/m 16,7 km/h (3 Bft) 97,87 %
29.04.2017 13:58 13,1 C 18,3 C 14,4 C 54 % 0 lf 1017,3 hPa 0,0 l/m 0 min 0 min 322 W/m 18,8 km/h (3 Bft) 100,00 %
29.04.2017 14:00 13,0 C 16,7 C 13,3 C 52 % 0 lf 1017,2 hPa 0,0 l/m 0 min 0 min 281 W/m 14,6 km/h (3 Bft) 97,87 %
29.04.2017 14:02 13,0 C 16,1 C 12,8 C 52 % 0 lf 1017,2 hPa 0,0 l/m 0 min 0 min 296 W/m 14,6 km/h (3 Bft) 100,00 %
29.04.2017 14:04 12,9 C 15,6 C 12,8 C 52 % 0 lf 1017,3 hPa 0,0 l/m 0 min 0 min 318 W/m 16,7 km/h (3 Bft) 100,00 %
29.04.2017 14:06 12,8 C 15,6 C 12,8 C 53 % 0 lf 1017,3 hPa 0,0 l/m 0 min 0 min 291 W/m 10,5 km/h (2 Bft) 100,00 %
29.04.2017 14:08 12,7 C 15,0 C 12,2 C 52 % 0 lf 1017,2 hPa 0,0 l/m 0 min 0 min 250 W/m 16,7 km/h (3 Bft) 100,00 %
29.04.2017 14:10 12,5 C 14,4 C 11,7 C 52 % 0 lf 1017,3 hPa 0,0 l/m 0 min 0 min 226 W/m 12,6 km/h (3 Bft) 97,87 %
29.04.2017 14:12 12,4 C 15,0 C 11,7 C 52 % 0 lf 1017,3 hPa 0,0 l/m 0 min 0 min 258 W/m 8,4 km/h (2 Bft) 97,87 %
29.04.2017 14:14 12,3 C 15,6 C 12,2 C 54 % 0 lf 1017,3 hPa 0,0 l/m 0 min 0 min 259 W/m 8,4 km/h (2 Bft) 100,00 %
29.04.2017 14:16 12,2 C 15,6 C 12,2 C 53 % 0 lf 1017,3 hPa 0,0 l/m 0 min 0 min 266 W/m 10,5 km/h (2 Bft) 100,00 %
29.04.2017 14:18 12,2 C 18,3 C 14,4 C 53 % 0 lf 1017,3 hPa 0,0 l/m 0 min 0 min 269 W/m 10,5 km/h (2 Bft) 100,00 %
29.04.2017 14:20 12,2 C 20,6 C 16,1 C 53 % 0 lf 1017,3 hPa 0,0 l/m 2 min 0 min 789 W/m 10,5 km/h (2 Bft) 100,00 %
29.04.2017 14:22 12,2 C 22,2 C 17,2 C 53 % 0 lf 1017,3 hPa 0,0 l/m 2 min 0 min 904 W/m 10,5 km/h (2 Bft) 100,00 %
29.04.2017 14:24 12,2 C 22,8 C 18,9 C 54 % 0 lf 1017,3 hPa 0,0 l/m 2 min 0 min 887 W/m 6,3 km/h (2 Bft) 97,87 %
29.04.2017 14:26 12,2 C 23,9 C 18,9 C 53 % 0 lf 1017,3 hPa 0,0 l/m 2 min 0 min 876 W/m 8,4 km/h (2 Bft) 100,00 %
29.04.2017 14:28 12,3 C 25,0 C 19,4 C 54 % 0 lf 1017,3 hPa 0,0 l/m 2 min 0 min 873 W/m 6,3 km/h (2 Bft) 100,00 %
29.04.2017 14:30 12,3 C 25,6 C 20,0 C 54 % 0 lf 1017,3 hPa 0,0 l/m 2 min 0 min 885 W/m 10,5 km/h (2 Bft) 95,74 %
29.04.2017 14:32 12,4 C 23,9 C 19,4 C 53 % 0 lf 1017,3 hPa 0,0 l/m 2 min 0 min 890 W/m 10,5 km/h (2 Bft) 97,87 %
29.04.2017 14:34 12,4 C 24,4 C 20,0 C 52 % 0 lf 1017,3 hPa 0,0 l/m 2 min 0 min 902 W/m 4,2 km/h (1 Bft) 97,87 %
29.04.2017 14:36 12,5 C 25,6 C 20,6 C 52 % 0 lf 1017,3 hPa 0,0 l/m 2 min 0 min 908 W/m 4,2 km/h (1 Bft) 97,87 %
29.04.2017 14:38 12,6 C 22,8 C 22,2 C 52 % 0 lf 1017,3 hPa 0,0 l/m 2 min 0 min 909 W/m 4,2 km/h (1 Bft) 95,74 %
29.04.2017 14:40 12,9 C 22,2 C 23,3 C 56 % 0 lf 1017,3 hPa 0,0 l/m 2 min 0 min 912 W/m 6,3 km/h (2 Bft) 93,48 %
29.04.2017 14:42 13,0 C 21,7 C 23,9 C 53 % 0 lf 1017,3 hPa 0,0 l/m 2 min 0 min 926 W/m 14,6 km/h (3 Bft) 95,74 %
29.04.2017 14:44 13,1 C 21,1 C 20,6 C 51 % 0 lf 1017,3 hPa 0,0 l/m 2 min 0 min 947 W/m 20,9 km/h (4 Bft) 97,87 %
29.04.2017 14:46 13,2 C 20,0 C 18,3 C 50 % 0 lf 1017,3 hPa 0,0 l/m 2 min 0 min 967 W/m 12,6 km/h (3 Bft) 100,00 %
29.04.2017 14:48 13,2 C 18,9 C 17,2 C 50 % 0 lf 1017,3 hPa 0,0 l/m 2 min 0 min 804 W/m 12,6 km/h (3 Bft) 97,87 %
29.04.2017 14:50 13,2 C 20,6 C 19,4 C 50 % 0 lf 1017,2 hPa 0,0 l/m 2 min 0 min 639 W/m 8,4 km/h (2 Bft) 100,00 %
29.04.2017 14:52 13,2 C 22,8 C 21,1 C 51 % 0 lf 1017,2 hPa 0,0 l/m 2 min 0 min 982 W/m 8,4 km/h (2 Bft) 100,00 %
29.04.2017 14:54 13,3 C 21,7 C 22,8 C 50 % 0 lf 1017,2 hPa 0,0 l/m 2 min 0 min 980 W/m 6,3 km/h (2 Bft) 100,00 %
29.04.2017 14:56 13,3 C 20,6 C 23,9 C 50 % 0 lf 1017,2 hPa 0,0 l/m 2 min 0 min 927 W/m 14,6 km/h (3 Bft) 100,00 %
29.04.2017 14:58 13,3 C 18,9 C 21,7 C 49 % 0 lf 1017,2 hPa 0,0 l/m 2 min 0 min 965 W/m 14,6 km/h (3 Bft) 91,49 %
29.04.2017 15:00 13,4 C 18,3 C 20,0 C 50 % 0 lf 1017,2 hPa 0,0 l/m 2 min 0 min 487 W/m 12,6 km/h (3 Bft) 97,87 %
29.04.2017 15:02 13,5 C 16,7 C 18,9 C 51 % 0 lf 1017,2 hPa 0,0 l/m 0 min 0 min 301 W/m 12,6 km/h (3 Bft) 95,74 %
29.04.2017 15:04 13,5 C 16,7 C 17,8 C 50 % 0 lf 1017,2 hPa 0,0 l/m 0 min 0 min 300 W/m 10,5 km/h (2 Bft) 97,83 %
29.04.2017 15:08 13,6 C 15,6 C 16,1 C 50 % 0 lf 1017,2 hPa 0,0 l/m 0 min 0 min 294 W/m 6,3 km/h (2 Bft) 97,87 %
29.04.2017 15:10 13,6 C 15,6 C 15,6 C 50 % 0 lf 1017,2 hPa 0,0 l/m 0 min 0 min 224 W/m 6,3 km/h (2 Bft) 95,74 %
29.04.2017 15:12 13,6 C 15,6 C 15,0 C 50 % 0 lf 1017,2 hPa 0,0 l/m 0 min 0 min 201 W/m 6,3 km/h (2 Bft) 97,87 %
29.04.2017 15:14 13,6 C 15,6 C 14,4 C 51 % 0 lf 1017,2 hPa 0,0 l/m 0 min 0 min 196 W/m 10,5 km/h (2 Bft) 91,49 %
29.04.2017 15:16 13,5 C 15,6 C 13,9 C 51 % 0 lf 1017,1 hPa 0,0 l/m 0 min 0 min 205 W/m 10,5 km/h (2 Bft) 95,65 %
29.04.2017 15:18 13,4 C 17,2 C 15,0 C 50 % 0 lf 1017,1 hPa 0,0 l/m 0 min 0 min 279 W/m 10,5 km/h (2 Bft) 97,87 %
29.04.2017 15:20 13,4 C 17,8 C 15,0 C 50 % 0 lf 1017,2 hPa 0,0 l/m 0 min 0 min 326 W/m 10,5 km/h (2 Bft) 94,92 %
29.04.2017 15:22 13,3 C 16,7 C 14,4 C 50 % 0 lf 1017,2 hPa 0,0 l/m 2 min 0 min 360 W/m 10,5 km/h (2 Bft) 97,14 %
29.04.2017 15:24 13,2 C 16,7 C 13,9 C 50 % 0 lf 1017,2 hPa 0,0 l/m 2 min 0 min 360 W/m 10,5 km/h (2 Bft) 97,87 %
29.04.2017 15:26 13,2 C 17,2 C 15,0 C 50 % 0 lf 1017,1 hPa 0,0 l/m 0 min 0 min 271 W/m 6,3 km/h (2 Bft) 95,74 %
29.04.2017 15:28 13,2 C 20,0 C 18,3 C 52 % 0 lf 1017,1 hPa 0,0 l/m 2 min 0 min 653 W/m 12,6 km/h (3 Bft) 95,65 %
29.04.2017 15:30 13,2 C 21,1 C 21,1 C 52 % 0 lf 1017,1 hPa 0,0 l/m 2 min 0 min 836 W/m 8,4 km/h (2 Bft) 95,74 %
29.04.2017 15:32 13,2 C 22,2 C 22,2 C 52 % 0 lf 1017,1 hPa 0,0 l/m 2 min 0 min 827 W/m 8,4 km/h (2 Bft) 89,36 %
29.04.2017 15:34 13,3 C 23,9 C 22,8 C 54 % 0 lf 1017,1 hPa 0,0 l/m 2 min 0 min 816 W/m 8,4 km/h (2 Bft) 95,74 %
29.04.2017 15:36 13,4 C 23,3 C 22,8 C 52 % 0 lf 1017,0 hPa 0,0 l/m 2 min 0 min 803 W/m 12,6 km/h (3 Bft) 95,74 %
29.04.2017 15:38 13,6 C 21,7 C 22,2 C 52 % 0 lf 1017,0 hPa 0,0 l/m 2 min 0 min 791 W/m 12,6 km/h (3 Bft) 93,62 %
29.04.2017 15:40 13,7 C 23,9 C 21,7 C 52 % 0 lf 1017,0 hPa 0,0 l/m 2 min 0 min 786 W/m 8,4 km/h (2 Bft) 93,48 %
29.04.2017 15:42 13,7 C 23,9 C 19,4 C 49 % 0 lf 1016,9 hPa 0,0 l/m 2 min 0 min 786 W/m 10,5 km/h (2 Bft) 89,36 %
29.04.2017 15:44 13,8 C 23,3 C 17,8 C 49 % 0 lf 1016,8 hPa 0,0 l/m 2 min 0 min 794 W/m 12,6 km/h (3 Bft) 95,74 %
29.04.2017 15:46 13,8 C 22,8 C 16,7 C 49 % 0 lf 1016,9 hPa 0,0 l/m 2 min 0 min 801 W/m 14,6 km/h (3 Bft) 93,62 %
29.04.2017 15:48 13,8 C 23,9 C 17,2 C 50 % 0 lf 1016,8 hPa 0,0 l/m 2 min 0 min 794 W/m 12,6 km/h (3 Bft) 95,74 %
29.04.2017 15:50 13,9 C 23,9 C 18,9 C 50 % 0 lf 1016,8 hPa 0,0 l/m 2 min 0 min 789 W/m 8,4 km/h (2 Bft) 91,38 %
29.04.2017 15:52 14,1 C 22,2 C 20,0 C 50 % 0 lf 1016,8 hPa 0,0 l/m 2 min 0 min 776 W/m 8,4 km/h (2 Bft) 97,14 %
29.04.2017 15:54 14,2 C 20,0 C 20,0 C 48 % 0 lf 1016,8 hPa 0,0 l/m 2 min 0 min 775 W/m 8,4 km/h (2 Bft) 93,62 %
29.04.2017 15:56 14,2 C 20,6 C 21,1 C 49 % 0 lf 1016,8 hPa 0,0 l/m 2 min 0 min 777 W/m 12,6 km/h (3 Bft) 91,49 %
29.04.2017 15:58 14,2 C 21,1 C 21,1 C 49 % 0 lf 1016,8 hPa 0,0 l/m 2 min 0 min 785 W/m 12,6 km/h (3 Bft) 91,49 %
29.04.2017 16:00 14,2 C 21,1 C 21,7 C 49 % 0 lf 1016,8 hPa 0,0 l/m 2 min 0 min 796 W/m 8,4 km/h (2 Bft) 95,74 %
29.04.2017 16:02 14,2 C 21,7 C 20,0 C 48 % 0 lf 1016,8 hPa 0,0 l/m 2 min 0 min 794 W/m 16,7 km/h (3 Bft) 93,48 %
29.04.2017 16:04 14,2 C 22,2 C 19,4 C 48 % 0 lf 1016,8 hPa 0,0 l/m 2 min 0 min 795 W/m 10,5 km/h (2 Bft) 93,62 %
29.04.2017 16:06 14,2 C 22,8 C 17,8 C 48 % 0 lf 1016,7 hPa 0,0 l/m 2 min 0 min 796 W/m 18,8 km/h (3 Bft) 95,74 %
29.04.2017 16:08 14,2 C 22,8 C 16,7 C 49 % 0 lf 1016,8 hPa 0,0 l/m 2 min 0 min 786 W/m 23,0 km/h (4 Bft) 97,87 %
29.04.2017 16:10 14,2 C 22,8 C 15,6 C 48 % 0 lf 1016,8 hPa 0,0 l/m 2 min 0 min 773 W/m 12,6 km/h (3 Bft) 95,74 %
29.04.2017 16:12 14,2 C 22,2 C 15,0 C 48 % 0 lf 1016,8 hPa 0,0 l/m 2 min 0 min 772 W/m 16,7 km/h (3 Bft) 95,74 %
29.04.2017 16:14 14,2 C 20,0 C 13,9 C 48 % 0 lf 1016,9 hPa 0,0 l/m 2 min 0 min 622 W/m 18,8 km/h (3 Bft) 93,48 %
29.04.2017 16:16 14,2 C 18,9 C 13,9 C 48 % 0 lf 1016,8 hPa 0,0 l/m 2 min 0 min 622 W/m 12,6 km/h (3 Bft) 93,62 %
29.04.2017 16:18 14,2 C 17,8 C 13,3 C 48 % 0 lf 1016,8 hPa 0,0 l/m 0 min 0 min 285 W/m 10,5 km/h (2 Bft) 95,74 %
29.04.2017 16:20 14,0 C 17,2 C 13,3 C 47 % 0 lf 1016,7 hPa 0,0 l/m 0 min 0 min 219 W/m 8,4 km/h (2 Bft) 95,74 %
29.04.2017 16:22 13,9 C 16,7 C 13,3 C 48 % 0 lf 1016,7 hPa 0,0 l/m 0 min 0 min 257 W/m 10,5 km/h (2 Bft) 97,87 %
29.04.2017 16:24 13,8 C 18,9 C 15,0 C 48 % 0 lf 1016,7 hPa 0,0 l/m 2 min 0 min 497 W/m 12,6 km/h (3 Bft) 97,87 %
29.04.2017 16:26 13,8 C 19,4 C 16,1 C 49 % 0 lf 1016,7 hPa 0,0 l/m 2 min 0 min 721 W/m 12,6 km/h (3 Bft) 97,83 %
29.04.2017 16:28 13,7 C 18,9 C 16,7 C 48 % 0 lf 1016,7 hPa 0,0 l/m 2 min 0 min 718 W/m 10,5 km/h (2 Bft) 97,87 %
29.04.2017 16:30 13,7 C 18,9 C 16,7 C 49 % 0 lf 1016,7 hPa 0,0 l/m 2 min 0 min 708 W/m 16,7 km/h (3 Bft) 97,87 %
29.04.2017 16:32 13,7 C 19,4 C 17,8 C 49 % 0 lf 1016,7 hPa 0,0 l/m 2 min 0 min 713 W/m 10,5 km/h (2 Bft) 97,87 %
29.04.2017 16:34 13,7 C 19,4 C 18,3 C 50 % 0 lf 1016,7 hPa 0,0 l/m 2 min 0 min 725 W/m 4,2 km/h (1 Bft) 97,87 %
29.04.2017 16:36 13,7 C 20,0 C 17,2 C 50 % 0 lf 1016,7 hPa 0,0 l/m 2 min 0 min 735 W/m 12,6 km/h (3 Bft) 97,87 %
29.04.2017 16:38 13,8 C 20,0 C 16,7 C 51 % 0 lf 1016,5 hPa 0,0 l/m 2 min 0 min 701 W/m 8,4 km/h (2 Bft) 97,83 %
29.04.2017 16:40 13,8 C 17,8 C 15,6 C 49 % 0 lf 1016,6 hPa 0,0 l/m 2 min 0 min 521 W/m 10,5 km/h (2 Bft) 93,62 %
29.04.2017 16:42 13,8 C 16,7 C 15,0 C 49 % 0 lf 1016,5 hPa 0,0 l/m 0 min 0 min 204 W/m 10,5 km/h (2 Bft) 97,87 %
29.04.2017 16:44 13,8 C 16,7 C 15,0 C 49 % 0 lf 1016,6 hPa 0,0 l/m 2 min 0 min 322 W/m 14,6 km/h (3 Bft) 97,87 %
29.04.2017 16:46 13,8 C 16,7 C 14,4 C 50 % 0 lf 1016,5 hPa 0,0 l/m 0 min 0 min 244 W/m 12,6 km/h (3 Bft) 95,74 %
29.04.2017 16:48 13,8 C 17,2 C 13,9 C 49 % 0 lf 1016,5 hPa 0,0 l/m 0 min 0 min 221 W/m 18,8 km/h (3 Bft) 95,74 %
29.04.2017 16:50 13,8 C 17,8 C 13,9 C 49 % 0 lf 1016,5 hPa 0,0 l/m 2 min 0 min 664 W/m 14,6 km/h (3 Bft) 98,28 %
29.04.2017 16:52 13,7 C 19,4 C 13,9 C 50 % 0 lf 1016,5 hPa 0,0 l/m 2 min 0 min 694 W/m 14,6 km/h (3 Bft) 97,14 %
29.04.2017 16:54 13,7 C 20,0 C 13,9 C 49 % 0 lf 1016,4 hPa 0,0 l/m 2 min 0 min 675 W/m 16,7 km/h (3 Bft) 97,87 %
29.04.2017 16:56 13,8 C 21,1 C 14,4 C 50 % 0 lf 1016,5 hPa 0,0 l/m 2 min 0 min 661 W/m 14,6 km/h (3 Bft) 95,74 %
29.04.2017 16:58 13,8 C 21,1 C 13,9 C 48 % 0 lf 1016,5 hPa 0,0 l/m 2 min 0 min 647 W/m 14,6 km/h (3 Bft) 95,74 %
29.04.2017 17:00 13,8 C 21,7 C 13,9 C 48 % 0 lf 1016,4 hPa 0,0 l/m 2 min 0 min 632 W/m 12,6 km/h (3 Bft) 97,83 %
29.04.2017 17:02 13,8 C 22,2 C 13,9 C 48 % 0 lf 1016,4 hPa 0,0 l/m 2 min 0 min 612 W/m 10,5 km/h (2 Bft) 97,87 %
29.04.2017 17:04 13,8 C 22,2 C 13,9 C 48 % 0 lf 1016,3 hPa 0,0 l/m 2 min 0 min 593 W/m 8,4 km/h (2 Bft) 97,87 %
29.04.2017 17:06 13,8 C 21,7 C 13,9 C 49 % 0 lf 1016,4 hPa 0,0 l/m 2 min 0 min 583 W/m 10,5 km/h (2 Bft) 97,87 %
29.04.2017 17:08 13,9 C 22,2 C 13,3 C 49 % 0 lf 1016,3 hPa 0,0 l/m 2 min 0 min 576 W/m 8,4 km/h (2 Bft) 97,87 %
29.04.2017 17:10 13,9 C 22,2 C 13,3 C 48 % 0 lf 1016,2 hPa 0,0 l/m 2 min 0 min 570 W/m 6,3 km/h (2 Bft) 95,74 %
29.04.2017 17:12 13,9 C 21,1 C 13,3 C 48 % 0 lf 1016,1 hPa 0,0 l/m 2 min 0 min 565 W/m 8,4 km/h (2 Bft) 97,83 %
29.04.2017 17:14 14,0 C 21,1 C 13,9 C 49 % 0 lf 1016,2 hPa 0,0 l/m 2 min 0 min 566 W/m 10,5 km/h (2 Bft) 97,87 %
29.04.2017 17:16 14,1 C 21,1 C 13,3 C 48 % 0 lf 1016,1 hPa 0,0 l/m 2 min 0 min 570 W/m 14,6 km/h (3 Bft) 97,87 %
29.04.2017 17:18 14,1 C 20,0 C 13,3 C 48 % 0 lf 1016,2 hPa 0,0 l/m 2 min 0 min 572 W/m 14,6 km/h (3 Bft) 100,00 %
29.04.2017 17:20 14,1 C 20,0 C 12,8 C 49 % 0 lf 1016,1 hPa 0,0 l/m 2 min 0 min 578 W/m 14,6 km/h (3 Bft) 100,00 %
29.04.2017 17:22 14,1 C 20,6 C 13,3 C 49 % 0 lf 1016,0 hPa 0,0 l/m 2 min 0 min 588 W/m 8,4 km/h (2 Bft) 97,22 %
29.04.2017 17:24 14,1 C 20,6 C 13,9 C 48 % 0 lf 1016,1 hPa 0,0 l/m 2 min 0 min 602 W/m 14,6 km/h (3 Bft) 100,00 %
29.04.2017 17:26 14,1 C 18,9 C 14,4 C 48 % 0 lf 1016,1 hPa 0,0 l/m 2 min 0 min 608 W/m 16,7 km/h (3 Bft) 100,00 %
29.04.2017 17:28 14,2 C 18,9 C 15,0 C 49 % 0 lf 1016,1 hPa 0,0 l/m 2 min 0 min 612 W/m 6,3 km/h (2 Bft) 100,00 %
29.04.2017 17:30 14,2 C 19,4 C 15,6 C 50 % 0 lf 1016,1 hPa 0,0 l/m 2 min 0 min 612 W/m 6,3 km/h (2 Bft) 97,87 %
29.04.2017 17:32 14,2 C 19,4 C 15,0 C 49 % 0 lf 1016,2 hPa 0,0 l/m 2 min 0 min 600 W/m 10,5 km/h (2 Bft) 97,87 %
29.04.2017 17:34 14,2 C 18,9 C 15,0 C 49 % 0 lf 1016,1 hPa 0,0 l/m 2 min 0 min 592 W/m 20,9 km/h (4 Bft) 97,87 %
29.04.2017 17:36 14,2 C 17,8 C 14,4 C 49 % 0 lf 1016,2 hPa 0,0 l/m 2 min 0 min 579 W/m 18,8 km/h (3 Bft) 97,83 %
29.04.2017 17:38 14,2 C 17,2 C 13,9 C 49 % 0 lf 1016,1 hPa 0,0 l/m 2 min 0 min 568 W/m 20,9 km/h (4 Bft) 97,87 %
29.04.2017 17:40 14,2 C 17,2 C 13,3 C 48 % 0 lf 1016,1 hPa 0,0 l/m 2 min 0 min 547 W/m 14,6 km/h (3 Bft) 93,62 %
29.04.2017 17:42 14,2 C 17,2 C 13,3 C 49 % 0 lf 1016,2 hPa 0,0 l/m 2 min 0 min 534 W/m 14,6 km/h (3 Bft) 93,62 %
29.04.2017 17:44 14,2 C 16,7 C 12,8 C 48 % 0 lf 1016,2 hPa 0,0 l/m 2 min 0 min 517 W/m 16,7 km/h (3 Bft) 95,74 %
29.04.2017 17:46 14,2 C 17,2 C 12,8 C 48 % 0 lf 1016,0 hPa 0,0 l/m 2 min 0 min 501 W/m 12,6 km/h (3 Bft) 95,65 %
29.04.2017 17:48 14,2 C 16,7 C 12,8 C 48 % 0 lf 1016,0 hPa 0,0 l/m 2 min 0 min 483 W/m 12,6 km/h (3 Bft) 93,62 %
29.04.2017 17:50 14,1 C 16,1 C 12,8 C 49 % 0 lf 1016,1 hPa 0,0 l/m 2 min 0 min 477 W/m 14,6 km/h (3 Bft) 93,62 %
29.04.2017 17:52 14,1 C 15,6 C 12,8 C 49 % 0 lf 1016,3 hPa 0,0 l/m 2 min 0 min 451 W/m 12,6 km/h (3 Bft) 93,62 %
29.04.2017 17:54 14,0 C 15,0 C 12,2 C 48 % 0 lf 1016,1 hPa 0,0 l/m 2 min 0 min 449 W/m 14,6 km/h (3 Bft) 95,74 %
29.04.2017 17:56 13,9 C 15,0 C 12,2 C 48 % 0 lf 1016,2 hPa 0,0 l/m 2 min 0 min 443 W/m 10,5 km/h (2 Bft) 95,74 %
29.04.2017 17:58 13,8 C 15,0 C 12,2 C 49 % 0 lf 1016,1 hPa 0,0 l/m 2 min 0 min 429 W/m 10,5 km/h (2 Bft) 93,62 %
29.04.2017 18:00 13,8 C 14,4 C 12,2 C 48 % 0 lf 1016,2 hPa 0,0 l/m 2 min 0 min 428 W/m 4,2 km/h (1 Bft) 93,48 %
29.04.2017 18:02 13,8 C 15,0 C 12,2 C 49 % 0 lf 1016,2 hPa 0,0 l/m 2 min 0 min 435 W/m 10,5 km/h (2 Bft) 90,00 %
29.04.2017 18:04 13,8 C 14,4 C 12,2 C 49 % 0 lf 1016,1 hPa 0,0 l/m 2 min 0 min 427 W/m 14,6 km/h (3 Bft) 89,36 %
29.04.2017 18:06 13,7 C 15,0 C 12,2 C 48 % 0 lf 1016,1 hPa 0,0 l/m 2 min 0 min 417 W/m 8,4 km/h (2 Bft) 93,62 %
29.04.2017 18:08 13,7 C 14,4 C 12,2 C 49 % 0 lf 1016,1 hPa 0,0 l/m 2 min 0 min 413 W/m 16,7 km/h (3 Bft) 93,75 %
29.04.2017 18:10 13,7 C 14,4 C 12,2 C 48 % 0 lf 1016,1 hPa 0,0 l/m 2 min 0 min 416 W/m 12,6 km/h (3 Bft) 93,48 %
29.04.2017 18:12 13,7 C 14,4 C 12,2 C 48 % 0 lf 1016,0 hPa 0,0 l/m 2 min 0 min 409 W/m 10,5 km/h (2 Bft) 93,62 %
29.04.2017 18:14 13,7 C 13,9 C 12,2 C 48 % 0 lf 1016,1 hPa 0,0 l/m 2 min 0 min 346 W/m 8,4 km/h (2 Bft) 89,36 %
29.04.2017 18:16 13,6 C 13,9 C 12,2 C 48 % 0 lf 1016,0 hPa 0,0 l/m 2 min 0 min 296 W/m 6,3 km/h (2 Bft) 93,62 %
29.04.2017 18:18 13,6 C 13,9 C 11,7 C 49 % 0 lf 1016,1 hPa 0,0 l/m 0 min 0 min 104 W/m 6,3 km/h (2 Bft) 95,74 %
29.04.2017 18:20 13,6 C 13,9 C 11,7 C 49 % 0 lf 1016,1 hPa 0,0 l/m 0 min 0 min 108 W/m 6,3 km/h (2 Bft) 93,62 %
29.04.2017 18:22 13,6 C 13,9 C 11,7 C 49 % 0 lf 1016,1 hPa 0,0 l/m 0 min 0 min 111 W/m 6,3 km/h (2 Bft) 97,83 %
29.04.2017 18:24 13,5 C 13,9 C 11,7 C 49 % 0 lf 1016,1 hPa 0,0 l/m 0 min 0 min 118 W/m 6,3 km/h (2 Bft) 97,87 %
29.04.2017 18:26 13,5 C 13,9 C 11,7 C 50 % 0 lf 1016,1 hPa 0,0 l/m 0 min 0 min 114 W/m 6,3 km/h (2 Bft) 93,62 %
29.04.2017 18:28 13,4 C 13,3 C 11,7 C 50 % 0 lf 1016,0 hPa 0,0 l/m 0 min 0 min 170 W/m 8,4 km/h (2 Bft) 97,87 %
29.04.2017 18:30 13,4 C 13,9 C 11,7 C 50 % 0 lf 1015,9 hPa 0,0 l/m 2 min 0 min 340 W/m 6,3 km/h (2 Bft) 95,74 %
29.04.2017 18:32 13,4 C 13,9 C 12,2 C 50 % 0 lf 1016,0 hPa 0,0 l/m 2 min 0 min 307 W/m 6,3 km/h (2 Bft) 95,65 %
29.04.2017 18:34 13,4 C 13,9 C 12,2 C 50 % 0 lf 1015,9 hPa 0,0 l/m 2 min 0 min 321 W/m 8,4 km/h (2 Bft) 97,87 %
29.04.2017 18:36 13,4 C 13,9 C 11,7 C 50 % 0 lf 1016,0 hPa 0,0 l/m 2 min 0 min 310 W/m 10,5 km/h (2 Bft) 91,49 %
29.04.2017 18:38 13,3 C 13,9 C 11,7 C 50 % 0 lf 1015,9 hPa 0,0 l/m 2 min 0 min 292 W/m 10,5 km/h (2 Bft) 97,87 %
29.04.2017 18:40 13,3 C 13,9 C 11,7 C 50 % 0 lf 1015,9 hPa 0,0 l/m 2 min 0 min 307 W/m 20,9 km/h (4 Bft) 95,74 %
29.04.2017 18:42 13,3 C 13,9 C 11,7 C 51 % 0 lf 1015,9 hPa 0,0 l/m 2 min 0 min 301 W/m 16,7 km/h (3 Bft) 95,74 %
29.04.2017 18:44 13,3 C 13,9 C 12,2 C 50 % 0 lf 1015,9 hPa 0,0 l/m 2 min 0 min 294 W/m 14,6 km/h (3 Bft) 97,83 %
29.04.2017 18:46 13,3 C 13,9 C 11,7 C 51 % 0 lf 1015,9 hPa 0,0 l/m 2 min 0 min 286 W/m 14,6 km/h (3 Bft) 97,87 %
29.04.2017 18:48 13,3 C 13,9 C 11,7 C 50 % 0 lf 1016,0 hPa 0,0 l/m 2 min 0 min 282 W/m 10,5 km/h (2 Bft) 100,00 %
29.04.2017 18:50 13,3 C 13,9 C 11,7 C 50 % 0 lf 1016,0 hPa 0,0 l/m 2 min 0 min 276 W/m 16,7 km/h (3 Bft) 100,00 %
29.04.2017 18:52 13,3 C 13,9 C 11,7 C 50 % 0 lf 1016,0 hPa 0,0 l/m 2 min 0 min 267 W/m 8,4 km/h (2 Bft) 100,00 %
29.04.2017 18:54 13,2 C 13,9 C 11,7 C 50 % 0 lf 1016,0 hPa 0,0 l/m 2 min 0 min 261 W/m 10,5 km/h (2 Bft) 100,00 %
29.04.2017 18:56 13,2 C 13,9 C 11,7 C 50 % 0 lf 1016,1 hPa 0,0 l/m 2 min 0 min 248 W/m 12,6 km/h (3 Bft) 100,00 %
29.04.2017 18:58 13,2 C 13,3 C 11,7 C 50 % 0 lf 1016,0 hPa 0,0 l/m 2 min 0 min 237 W/m 14,6 km/h (3 Bft) 100,00 %
29.04.2017 19:00 13,2 C 13,3 C 11,1 C 50 % 0 lf 1015,9 hPa 0,0 l/m 2 min 0 min 230 W/m 16,7 km/h (3 Bft) 100,00 %
29.04.2017 19:02 13,2 C 13,3 C 11,1 C 50 % 0 lf 1015,9 hPa 0,0 l/m 2 min 0 min 222 W/m 16,7 km/h (3 Bft) 95,74 %
29.04.2017 19:04 13,1 C 13,3 C 11,1 C 51 % 0 lf 1015,9 hPa 0,0 l/m 2 min 0 min 206 W/m 8,4 km/h (2 Bft) 100,00 %
29.04.2017 19:06 13,1 C 13,3 C 11,1 C 51 % 0 lf 1015,9 hPa 0,0 l/m 2 min 0 min 208 W/m 8,4 km/h (2 Bft) 100,00 %
29.04.2017 19:08 13,1 C 13,3 C 11,1 C 50 % 0 lf 1015,9 hPa 0,0 l/m 2 min 0 min 202 W/m 8,4 km/h (2 Bft) 97,83 %
29.04.2017 19:10 13,1 C 13,3 C 11,1 C 50 % 0 lf 1015,8 hPa 0,0 l/m 2 min 0 min 196 W/m 8,4 km/h (2 Bft) 100,00 %
29.04.2017 19:12 13,1 C 13,3 C 11,1 C 50 % 0 lf 1015,9 hPa 0,0 l/m 2 min 0 min 186 W/m 16,7 km/h (3 Bft) 97,87 %
29.04.2017 19:14 13,0 C 13,3 C 11,1 C 50 % 0 lf 1015,9 hPa 0,0 l/m 2 min 0 min 179 W/m 14,6 km/h (3 Bft) 97,87 %
29.04.2017 19:16 13,0 C 12,8 C 11,1 C 50 % 0 lf 1015,8 hPa 0,0 l/m 2 min 0 min 172 W/m 14,6 km/h (3 Bft) 100,00 %
29.04.2017 19:18 12,9 C 12,8 C 10,6 C 51 % 0 lf 1015,8 hPa 0,0 l/m 2 min 0 min 161 W/m 12,6 km/h (3 Bft) 97,83 %
29.04.2017 19:20 12,9 C 12,8 C 10,6 C 50 % 0 lf 1015,8 hPa 0,0 l/m 2 min 0 min 155 W/m 14,6 km/h (3 Bft) 100,00 %
29.04.2017 19:22 12,9 C 12,8 C 10,6 C 50 % 0 lf 1015,8 hPa 0,0 l/m 2 min 0 min 151 W/m 8,4 km/h (2 Bft) 100,00 %
29.04.2017 19:24 12,8 C 12,8 C 10,6 C 51 % 0 lf 1015,8 hPa 0,0 l/m 2 min 0 min 138 W/m 14,6 km/h (3 Bft) 97,87 %
29.04.2017 19:26 12,8 C 12,8 C 10,6 C 51 % 0 lf 1015,8 hPa 0,0 l/m 2 min 0 min 124 W/m 10,5 km/h (2 Bft) 97,87 %
29.04.2017 19:28 12,8 C 12,8 C 10,6 C 51 % 0 lf 1015,8 hPa 0,0 l/m 2 min 0 min 117 W/m 14,6 km/h (3 Bft) 100,00 %
29.04.2017 19:30 12,8 C 12,8 C 10,6 C 51 % 0 lf 1015,7 hPa 0,0 l/m 2 min 0 min 111 W/m 12,6 km/h (3 Bft) 97,83 %
29.04.2017 19:32 12,7 C 12,8 C 10,6 C 51 % 0 lf 1015,7 hPa 0,0 l/m 0 min 0 min 62 W/m 6,3 km/h (2 Bft) 95,74 %
29.04.2017 19:34 12,7 C 12,8 C 10,6 C 51 % 0 lf 1015,7 hPa 0,0 l/m 0 min 0 min 52 W/m 10,5 km/h (2 Bft) 95,74 %
29.04.2017 19:36 12,7 C 12,8 C 10,6 C 50 % 0 lf 1015,7 hPa 0,0 l/m 0 min 0 min 54 W/m 10,5 km/h (2 Bft) 97,87 %
29.04.2017 19:38 12,7 C 12,8 C 10,6 C 50 % 0 lf 1015,7 hPa 0,0 l/m 0 min 0 min 69 W/m 8,4 km/h (2 Bft) 97,87 %
29.04.2017 19:40 12,7 C 12,8 C 10,6 C 50 % 0 lf 1015,7 hPa 0,0 l/m 2 min 0 min 91 W/m 10,5 km/h (2 Bft) 97,87 %
29.04.2017 19:42 12,6 C 12,8 C 10,6 C 50 % 0 lf 1015,7 hPa 0,0 l/m 2 min 0 min 95 W/m 12,6 km/h (3 Bft) 95,65 %
29.04.2017 19:44 12,6 C 12,8 C 10,6 C 51 % 0 lf 1015,7 hPa 0,0 l/m 2 min 0 min 89 W/m 10,5 km/h (2 Bft) 91,49 %
29.04.2017 19:46 12,6 C 12,8 C 10,6 C 51 % 0 lf 1015,8 hPa 0,0 l/m 2 min 0 min 85 W/m 16,7 km/h (3 Bft) 91,49 %
29.04.2017 19:48 12,6 C 12,8 C 10,0 C 51 % 0 lf 1015,8 hPa 0,0 l/m 2 min 0 min 81 W/m 16,7 km/h (3 Bft) 97,87 %
29.04.2017 19:50 12,6 C 12,8 C 10,6 C 51 % 0 lf 1015,8 hPa 0,0 l/m 2 min 0 min 77 W/m 18,8 km/h (3 Bft) 95,74 %
29.04.2017 19:52 12,5 C 12,8 C 10,6 C 51 % 0 lf 1015,8 hPa 0,0 l/m 2 min 0 min 72 W/m 16,7 km/h (3 Bft) 97,87 %
29.04.2017 19:54 12,5 C 12,2 C 10,6 C 51 % 0 lf 1015,8 hPa 0,0 l/m 2 min 0 min 69 W/m 14,6 km/h (3 Bft) 97,83 %
29.04.2017 19:56 12,5 C 12,2 C 10,6 C 51 % 0 lf 1015,8 hPa 0,0 l/m 2 min 0 min 66 W/m 10,5 km/h (2 Bft) 95,74 %
29.04.2017 19:58 12,4 C 12,2 C 10,0 C 51 % 0 lf 1015,8 hPa 0,0 l/m 0 min 0 min 62 W/m 16,7 km/h (3 Bft) 97,87 %
29.04.2017 20:00 12,4 C 12,2 C 10,0 C 51 % 0 lf 1015,8 hPa 0,0 l/m 0 min 0 min 58 W/m 16,7 km/h (3 Bft) 97,87 %
29.04.2017 20:02 12,4 C 12,2 C 10,0 C 51 % 0 lf 1015,8 hPa 0,0 l/m 0 min 0 min 53 W/m 12,6 km/h (3 Bft) 93,62 %
29.04.2017 20:04 12,4 C 12,2 C 10,0 C 51 % 0 lf 1015,8 hPa 0,0 l/m 0 min 0 min 50 W/m 10,5 km/h (2 Bft) 93,62 %
29.04.2017 20:06 12,3 C 12,2 C 10,0 C 52 % 0 lf 1015,8 hPa 0,0 l/m 0 min 0 min 47 W/m 10,5 km/h (2 Bft) 97,83 %
29.04.2017 20:08 12,3 C 11,7 C 10,0 C 52 % 0 lf 1015,8 hPa 0,0 l/m 0 min 0 min 45 W/m 16,7 km/h (3 Bft) 93,62 %
29.04.2017 20:10 12,3 C 11,7 C 9,4 C 52 % 0 lf 1015,7 hPa 0,0 l/m 0 min 0 min 41 W/m 14,6 km/h (3 Bft) 97,87 %
29.04.2017 20:12 12,2 C 11,7 C 9,4 C 52 % 0 lf 1015,7 hPa 0,0 l/m 0 min 0 min 38 W/m 8,4 km/h (2 Bft) 93,62 %
29.04.2017 20:14 12,2 C 11,7 C 9,4 C 52 % 0 lf 1015,7 hPa 0,0 l/m 0 min 0 min 36 W/m 6,3 km/h (2 Bft) 95,74 %
29.04.2017 20:16 12,2 C 11,7 C 9,4 C 53 % 0 lf 1015,7 hPa 0,0 l/m 0 min 0 min 33 W/m 6,3 km/h (2 Bft) 93,62 %
29.04.2017 20:18 12,2 C 11,7 C 8,9 C 53 % 0 lf 1015,7 hPa 0,0 l/m 0 min 0 min 31 W/m 8,4 km/h (2 Bft) 95,65 %
29.04.2017 20:20 12,1 C 11,1 C 8,9 C 53 % 0 lf 1015,7 hPa 0,0 l/m 0 min 0 min 30 W/m 10,5 km/h (2 Bft) 91,49 %
29.04.2017 20:22 12,1 C 11,1 C 8,9 C 52 % 0 lf 1015,8 hPa 0,0 l/m 0 min 0 min 28 W/m 10,5 km/h (2 Bft) 95,74 %
29.04.2017 20:24 12,1 C 11,1 C 8,9 C 53 % 0 lf 1015,7 hPa 0,0 l/m 0 min 0 min 26 W/m 8,4 km/h (2 Bft) 96,00 %
29.04.2017 20:26 12,0 C 11,1 C 8,9 C 53 % 0 lf 1015,7 hPa 0,0 l/m 0 min 0 min 25 W/m 8,4 km/h (2 Bft) 95,74 %
29.04.2017 20:28 11,9 C 11,1 C 8,9 C 53 % 0 lf 1015,7 hPa 0,0 l/m 0 min 0 min 24 W/m 8,4 km/h (2 Bft) 93,48 %
29.04.2017 20:30 11,9 C 11,1 C 8,9 C 53 % 0 lf 1015,7 hPa 0,0 l/m 2 min 0 min 23 W/m 12,6 km/h (3 Bft) 95,74 %
29.04.2017 20:32 11,9 C 11,1 C 8,3 C 53 % 0 lf 1015,8 hPa 0,0 l/m 2 min 0 min 22 W/m 6,3 km/h (2 Bft) 93,62 %
29.04.2017 20:34 11,8 C 10,6 C 8,3 C 53 % 0 lf 1015,8 hPa 0,0 l/m 2 min 0 min 20 W/m 10,5 km/h (2 Bft) 95,74 %
29.04.2017 20:36 11,8 C 10,6 C 8,3 C 53 % 0 lf 1015,8 hPa 0,0 l/m 0 min 0 min 19 W/m 10,5 km/h (2 Bft) 95,74 %
29.04.2017 20:38 11,8 C 10,6 C 7,8 C 54 % 0 lf 1015,8 hPa 0,0 l/m 0 min 0 min 18 W/m 10,5 km/h (2 Bft) 95,74 %
29.04.2017 20:40 11,7 C 10,6 C 7,8 C 54 % 0 lf 1015,7 hPa 0,0 l/m 0 min 0 min 16 W/m 10,5 km/h (2 Bft) 95,65 %
29.04.2017 20:42 11,7 C 10,6 C 8,3 C 54 % 0 lf 1015,8 hPa 0,0 l/m 0 min 0 min 15 W/m 6,3 km/h (2 Bft) 95,74 %
29.04.2017 20:44 11,6 C 10,6 C 7,8 C 54 % 0 lf 1015,7 hPa 0,0 l/m 0 min 0 min 14 W/m 6,3 km/h (2 Bft) 97,87 %
29.04.2017 20:46 11,6 C 10,6 C 7,8 C 54 % 0 lf 1015,7 hPa 0,0 l/m 0 min 0 min 12 W/m 10,5 km/h (2 Bft) 93,62 %
29.04.2017 20:48 11,5 C 10,0 C 7,8 C 54 % 0 lf 1015,7 hPa 0,0 l/m 0 min 0 min 12 W/m 10,5 km/h (2 Bft) 93,62 %
29.04.2017 20:50 11,4 C 10,6 C 7,8 C 54 % 0 lf 1015,8 hPa 0,0 l/m 0 min 0 min 11 W/m 14,6 km/h (3 Bft) 100,00 %
29.04.2017 20:52 11,4 C 10,6 C 7,8 C 55 % 0 lf 1015,8 hPa 0,0 l/m 0 min 0 min 10 W/m 10,5 km/h (2 Bft) 97,83 %
29.04.2017 20:54 11,4 C 10,0 C 7,2 C 55 % 0 lf 1015,7 hPa 0,0 l/m 0 min 0 min 9 W/m 6,3 km/h (2 Bft) 95,74 %
29.04.2017 20:56 11,3 C 10,0 C 7,2 C 55 % 0 lf 1015,7 hPa 0,0 l/m 0 min 0 min 9 W/m 8,4 km/h (2 Bft) 97,87 %
29.04.2017 20:58 11,3 C 10,0 C 7,2 C 55 % 0 lf 1015,7 hPa 0,0 l/m 0 min 0 min 7 W/m 4,2 km/h (1 Bft) 95,74 %
29.04.2017 21:00 11,3 C 10,0 C 6,7 C 55 % 0 lf 1015,7 hPa 0,0 l/m 0 min 0 min 7 W/m 4,2 km/h (1 Bft) 95,74 %
29.04.2017 21:02 11,2 C 10,0 C 6,7 C 55 % 0 lf 1015,7 hPa 0,0 l/m 0 min 0 min 7 W/m 6,3 km/h (2 Bft) 95,74 %
29.04.2017 21:04 11,2 C 9,4 C 6,1 C 55 % 0 lf 1015,7 hPa 0,0 l/m 0 min 0 min 5 W/m 4,2 km/h (1 Bft) 93,48 %
29.04.2017 21:06 11,1 C 9,4 C 6,1 C 56 % 0 lf 1015,7 hPa 0,0 l/m 0 min 0 min 5 W/m 4,2 km/h (1 Bft) 93,62 %
29.04.2017 21:08 11,1 C 9,4 C 6,1 C 56 % 0 lf 1015,8 hPa 0,0 l/m 0 min 0 min 5 W/m 4,2 km/h (1 Bft) 95,74 %
29.04.2017 21:10 11,0 C 9,4 C 6,1 C 56 % 0 lf 1015,8 hPa 0,0 l/m 0 min 0 min 5 W/m 4,2 km/h (1 Bft) 95,74 %
29.04.2017 21:12 10,9 C 9,4 C 5,6 C 56 % 0 lf 1015,7 hPa 0,0 l/m 0 min 0 min 5 W/m 4,2 km/h (1 Bft) 95,74 %
29.04.2017 21:14 10,9 C 8,9 C 5,6 C 57 % 0 lf 1015,7 hPa 0,0 l/m 0 min 0 min 0 W/m 6,3 km/h (2 Bft) 95,74 %
29.04.2017 21:16 10,9 C 8,9 C 5,6 C 57 % 0 lf 1015,7 hPa 0,0 l/m 0 min 0 min 0 W/m 8,4 km/h (2 Bft) 97,83 %
29.04.2017 21:18 10,8 C 8,9 C 5,0 C 57 % 0 lf 1015,7 hPa 0,0 l/m 0 min 0 min 0 W/m 4,2 km/h (1 Bft) 97,87 %
29.04.2017 21:20 10,7 C 8,3 C 5,0 C 57 % 0 lf 1015,7 hPa 0,0 l/m 0 min 0 min 0 W/m 4,2 km/h (1 Bft) 95,74 %
29.04.2017 21:22 10,7 C 8,3 C 5,0 C 58 % 0 lf 1015,7 hPa 0,0 l/m 0 min 0 min 0 W/m 4,2 km/h (1 Bft) 95,74 %
29.04.2017 21:24 10,6 C 8,3 C 5,0 C 58 % 0 lf 1015,7 hPa 0,0 l/m 0 min 0 min 0 W/m 6,3 km/h (2 Bft) 97,87 %
29.04.2017 21:26 10,6 C 8,9 C 5,0 C 58 % 0 lf 1015,7 hPa 0,0 l/m 0 min 0 min 0 W/m 4,2 km/h (1 Bft) 93,62 %
29.04.2017 21:28 10,4 C 8,9 C 5,0 C 58 % 0 lf 1015,7 hPa 0,0 l/m 0 min 0 min 0 W/m 4,2 km/h (1 Bft) 95,65 %
29.04.2017 21:30 10,4 C 8,3 C 5,0 C 58 % 0 lf 1015,8 hPa 0,0 l/m 0 min 0 min 0 W/m 6,3 km/h (2 Bft) 97,87 %
29.04.2017 21:32 10,3 C 8,3 C 5,0 C 58 % 0 lf 1015,7 hPa 0,0 l/m 0 min 0 min 0 W/m 2,1 km/h (1 Bft) 97,87 %
29.04.2017 21:34 10,3 C 8,3 C 5,0 C 58 % 0 lf 1015,7 hPa 0,0 l/m 0 min 0 min 0 W/m 6,3 km/h (2 Bft) 95,74 %
29.04.2017 21:36 10,2 C 8,3 C 5,0 C 59 % 0 lf 1015,7 hPa 0,0 l/m 0 min 0 min 0 W/m 6,3 km/h (2 Bft) 97,87 %
29.04.2017 21:38 10,1 C 8,3 C 5,0 C 59 % 0 lf 1015,7 hPa 0,0 l/m 0 min 0 min 0 W/m 8,4 km/h (2 Bft) 95,65 %
29.04.2017 21:40 10,1 C 8,3 C 5,0 C 59 % 0 lf 1015,7 hPa 0,0 l/m 0 min 0 min 0 W/m 6,3 km/h (2 Bft) 97,87 %
29.04.2017 21:42 10,0 C 8,3 C 5,0 C 59 % 0 lf 1015,6 hPa 0,0 l/m 0 min 0 min 0 W/m 10,5 km/h (2 Bft) 97,87 %
29.04.2017 21:44 9,9 C 8,9 C 5,0 C 60 % 0 lf 1015,6 hPa 0,0 l/m 0 min 0 min 0 W/m 8,4 km/h (2 Bft) 97,87 %
29.04.2017 21:46 9,8 C 8,9 C 5,6 C 60 % 0 lf 1015,5 hPa 0,0 l/m 0 min 0 min 0 W/m 10,5 km/h (2 Bft) 95,74 %
29.04.2017 21:48 9,8 C 8,9 C 5,6 C 60 % 0 lf 1015,6 hPa 0,0 l/m 0 min 0 min 0 W/m 6,3 km/h (2 Bft) 97,87 %
29.04.2017 21:50 9,7 C 8,3 C 5,0 C 60 % 0 lf 1015,6 hPa 0,0 l/m 0 min 0 min 0 W/m 10,5 km/h (2 Bft) 97,83 %
29.04.2017 21:52 9,6 C 8,3 C 5,6 C 60 % 0 lf 1015,6 hPa 0,0 l/m 0 min 0 min 0 W/m 8,4 km/h (2 Bft) 97,87 %
29.04.2017 21:54 9,6 C 8,3 C 5,6 C 60 % 0 lf 1015,6 hPa 0,0 l/m 0 min 0 min 0 W/m 12,6 km/h (3 Bft) 95,74 %
29.04.2017 21:56 9,5 C 8,3 C 5,0 C 60 % 0 lf 1015,6 hPa 0,0 l/m 0 min 0 min 0 W/m 4,2 km/h (1 Bft) 100,00 %
29.04.2017 21:58 9,4 C 8,3 C 5,6 C 60 % 0 lf 1015,6 hPa 0,0 l/m 0 min 0 min 0 W/m 6,3 km/h (2 Bft) 97,87 %
29.04.2017 22:00 9,4 C 8,3 C 5,0 C 61 % 0 lf 1015,6 hPa 0,0 l/m 0 min 0 min 1 W/m 10,5 km/h (2 Bft) 97,87 %
29.04.2017 22:02 9,4 C 8,3 C 5,0 C 61 % 0 lf 1015,6 hPa 0,0 l/m 0 min 0 min 3 W/m 14,6 km/h (3 Bft) 95,65 %
29.04.2017 22:04 9,3 C 8,9 C 5,6 C 61 % 0 lf 1015,5 hPa 0,0 l/m 0 min 0 min 3 W/m 10,5 km/h (2 Bft) 93,62 %
29.04.2017 22:06 9,3 C 8,3 C 5,6 C 61 % 0 lf 1015,6 hPa 0,0 l/m 0 min 0 min 0 W/m 12,6 km/h (3 Bft) 95,74 %
29.04.2017 22:08 9,2 C 8,3 C 5,6 C 61 % 0 lf 1015,6 hPa 0,0 l/m 0 min 0 min 0 W/m 12,6 km/h (3 Bft) 95,74 %
29.04.2017 22:10 9,2 C 8,3 C 5,6 C 61 % 0 lf 1015,6 hPa 0,0 l/m 0 min 0 min 0 W/m 14,6 km/h (3 Bft) 95,74 %
29.04.2017 22:12 9,2 C 8,9 C 5,6 C 61 % 0 lf 1015,6 hPa 0,0 l/m 0 min 0 min 0 W/m 12,6 km/h (3 Bft) 95,74 %
29.04.2017 22:14 9,2 C 8,9 C 5,6 C 61 % 0 lf 1015,7 hPa 0,0 l/m 0 min 0 min 0 W/m 12,6 km/h (3 Bft) 97,83 %
29.04.2017 22:16 9,1 C 8,9 C 6,1 C 61 % 0 lf 1015,5 hPa 0,0 l/m 0 min 0 min 0 W/m 14,6 km/h (3 Bft) 95,74 %
29.04.2017 22:18 9,1 C 8,9 C 6,1 C 61 % 0 lf 1015,6 hPa 0,0 l/m 0 min 0 min 0 W/m 12,6 km/h (3 Bft) 91,49 %
29.04.2017 22:20 9,1 C 8,9 C 6,1 C 62 % 0 lf 1015,5 hPa 0,0 l/m 0 min 0 min 0 W/m 14,6 km/h (3 Bft) 91,49 %
29.04.2017 22:22 9,0 C 8,9 C 6,1 C 62 % 0 lf 1015,5 hPa 0,0 l/m 0 min 0 min 0 W/m 12,6 km/h (3 Bft) 91,49 %
29.04.2017 22:24 9,0 C 8,9 C 6,1 C 62 % 0 lf 1015,5 hPa 0,0 l/m 0 min 0 min 0 W/m 6,3 km/h (2 Bft) 95,74 %
29.04.2017 22:26 8,9 C 8,9 C 6,1 C 62 % 0 lf 1015,5 hPa 0,0 l/m 0 min 0 min 0 W/m 10,5 km/h (2 Bft) 97,83 %
29.04.2017 22:28 8,9 C 8,9 C 6,1 C 62 % 0 lf 1015,5 hPa 0,0 l/m 0 min 0 min 0 W/m 8,4 km/h (2 Bft) 93,62 %
29.04.2017 22:30 8,9 C 8,3 C 5,6 C 62 % 0 lf 1015,5 hPa 0,0 l/m 0 min 0 min 0 W/m 8,4 km/h (2 Bft) 95,74 %
29.04.2017 22:32 8,9 C 8,3 C 5,6 C 62 % 0 lf 1015,5 hPa 0,0 l/m 0 min 0 min 0 W/m 10,5 km/h (2 Bft) 91,49 %
29.04.2017 22:34 8,9 C 8,3 C 5,6 C 62 % 0 lf 1015,5 hPa 0,0 l/m 0 min 0 min 0 W/m 8,4 km/h (2 Bft) 95,74 %
29.04.2017 22:36 8,8 C 8,3 C 6,1 C 62 % 0 lf 1015,5 hPa 0,0 l/m 0 min 0 min 0 W/m 10,5 km/h (2 Bft) 91,30 %
29.04.2017 22:38 8,8 C 8,3 C 5,6 C 62 % 0 lf 1015,5 hPa 0,0 l/m 0 min 0 min 0 W/m 10,5 km/h (2 Bft) 93,62 %
29.04.2017 22:40 8,8 C 8,3 C 5,6 C 62 % 0 lf 1015,5 hPa 0,0 l/m 0 min 0 min 0 W/m 6,3 km/h (2 Bft) 95,74 %
29.04.2017 22:42 8,8 C 8,3 C 5,0 C 63 % 0 lf 1015,5 hPa 0,0 l/m 0 min 0 min 0 W/m 12,6 km/h (3 Bft) 95,74 %
29.04.2017 22:44 8,7 C 7,8 C 5,0 C 63 % 0 lf 1015,5 hPa 0,0 l/m 0 min 0 min 0 W/m 12,6 km/h (3 Bft) 97,87 %
29.04.2017 22:46 8,7 C 8,3 C 5,6 C 63 % 0 lf 1015,5 hPa 0,0 l/m 0 min 0 min 0 W/m 14,6 km/h (3 Bft) 97,87 %
29.04.2017 22:48 8,7 C 8,3 C 5,6 C 63 % 0 lf 1015,5 hPa 0,0 l/m 0 min 0 min 0 W/m 8,4 km/h (2 Bft) 97,87 %
29.04.2017 22:50 8,6 C 8,3 C 6,1 C 63 % 0 lf 1015,5 hPa 0,0 l/m 0 min 0 min 0 W/m 12,6 km/h (3 Bft) 97,83 %
29.04.2017 22:52 8,6 C 8,3 C 6,1 C 63 % 0 lf 1015,5 hPa 0,0 l/m 0 min 0 min 0 W/m 10,5 km/h (2 Bft) 95,74 %
29.04.2017 22:54 8,6 C 8,3 C 5,6 C 63 % 0 lf 1015,5 hPa 0,0 l/m 0 min 0 min 0 W/m 12,6 km/h (3 Bft) 97,87 %
29.04.2017 22:56 8,6 C 8,3 C 5,6 C 63 % 0 lf 1015,5 hPa 0,0 l/m 0 min 0 min 0 W/m 12,6 km/h (3 Bft) 97,87 %
29.04.2017 22:58 8,6 C 8,3 C 5,6 C 63 % 0 lf 1015,5 hPa 0,0 l/m 0 min 0 min 0 W/m 16,7 km/h (3 Bft) 97,87 %
29.04.2017 23:00 8,5 C 8,3 C 5,6 C 63 % 0 lf 1015,6 hPa 0,0 l/m 0 min 0 min 0 W/m 10,5 km/h (2 Bft) 97,83 %
29.04.2017 23:02 8,5 C 8,3 C 5,6 C 63 % 0 lf 1015,6 hPa 0,0 l/m 0 min 0 min 0 W/m 12,6 km/h (3 Bft) 100,00 %
29.04.2017 23:04 8,4 C 8,3 C 5,6 C 63 % 0 lf 1015,5 hPa 0,0 l/m 0 min 0 min 0 W/m 12,6 km/h (3 Bft) 97,87 %
29.04.2017 23:06 8,4 C 8,3 C 6,1 C 63 % 0 lf 1015,5 hPa 0,0 l/m 0 min 0 min 0 W/m 18,8 km/h (3 Bft) 100,00 %
29.04.2017 23:08 8,4 C 8,3 C 6,1 C 63 % 0 lf 1015,5 hPa 0,0 l/m 0 min 0 min 0 W/m 14,6 km/h (3 Bft) 100,00 %
29.04.2017 23:10 8,4 C 8,3 C 6,1 C 63 % 0 lf 1015,5 hPa 0,0 l/m 0 min 0 min 0 W/m 14,6 km/h (3 Bft) 100,00 %
29.04.2017 23:12 8,4 C 8,3 C 6,1 C 63 % 0 lf 1015,5 hPa 0,0 l/m 0 min 0 min 0 W/m 14,6 km/h (3 Bft) 100,00 %
29.04.2017 23:14 8,3 C 8,3 C 6,1 C 63 % 0 lf 1015,5 hPa 0,0 l/m 0 min 0 min 0 W/m 14,6 km/h (3 Bft) 100,00 %
29.04.2017 23:16 8,3 C 7,8 C 5,6 C 63 % 0 lf 1015,4 hPa 0,0 l/m 0 min 0 min 0 W/m 12,6 km/h (3 Bft) 100,00 %
29.04.2017 23:18 8,3 C 8,3 C 5,6 C 63 % 0 lf 1015,4 hPa 0,0 l/m 0 min 0 min 0 W/m 16,7 km/h (3 Bft) 100,00 %
29.04.2017 23:20 8,3 C 7,8 C 5,6 C 63 % 0 lf 1015,5 hPa 0,0 l/m 0 min 0 min 0 W/m 16,7 km/h (3 Bft) 100,00 %
29.04.2017 23:22 8,3 C 7,8 C 5,6 C 63 % 0 lf 1015,5 hPa 0,0 l/m 0 min 0 min 0 W/m 12,6 km/h (3 Bft) 100,00 %
29.04.2017 23:24 8,3 C 8,3 C 5,6 C 63 % 0 lf 1015,5 hPa 0,0 l/m 0 min 0 min 0 W/m 10,5 km/h (2 Bft) 100,00 %
29.04.2017 23:26 8,3 C 7,8 C 5,6 C 63 % 0 lf 1015,4 hPa 0,0 l/m 0 min 0 min 0 W/m 14,6 km/h (3 Bft) 95,74 %
29.04.2017 23:28 8,2 C 7,8 C 5,6 C 63 % 0 lf 1015,4 hPa 0,0 l/m 0 min 0 min 0 W/m 12,6 km/h (3 Bft) 95,74 %
29.04.2017 23:30 8,2 C 7,8 C 5,6 C 63 % 0 lf 1015,4 hPa 0,0 l/m 0 min 0 min 0 W/m 6,3 km/h (2 Bft) 97,87 %
29.04.2017 23:32 8,2 C 7,8 C 5,6 C 64 % 0 lf 1015,4 hPa 0,0 l/m 0 min 0 min 0 W/m 10,5 km/h (2 Bft) 97,87 %
29.04.2017 23:34 8,2 C 7,8 C 5,6 C 64 % 0 lf 1015,4 hPa 0,0 l/m 0 min 0 min 0 W/m 10,5 km/h (2 Bft) 95,74 %
29.04.2017 23:36 8,2 C 7,8 C 5,6 C 63 % 0 lf 1015,5 hPa 0,0 l/m 0 min 0 min 0 W/m 14,6 km/h (3 Bft) 97,83 %
29.04.2017 23:38 8,2 C 7,8 C 5,6 C 63 % 0 lf 1015,5 hPa 0,0 l/m 0 min 0 min 0 W/m 12,6 km/h (3 Bft) 97,87 %
29.04.2017 23:40 8,1 C 7,8 C 5,6 C 64 % 0 lf 1015,5 hPa 0,0 l/m 0 min 0 min 0 W/m 10,5 km/h (2 Bft) 97,87 %
29.04.2017 23:42 8,1 C 7,8 C 5,6 C 64 % 0 lf 1015,4 hPa 0,0 l/m 0 min 0 min 0 W/m 10,5 km/h (2 Bft) 95,74 %
29.04.2017 23:44 8,1 C 7,8 C 5,0 C 64 % 0 lf 1015,4 hPa 0,0 l/m 0 min 0 min 0 W/m 12,6 km/h (3 Bft) 91,49 %
29.04.2017 23:46 8,1 C 7,8 C 5,0 C 64 % 0 lf 1015,5 hPa 0,0 l/m 0 min 0 min 0 W/m 12,6 km/h (3 Bft) 95,65 %
29.04.2017 23:48 8,1 C 7,8 C 5,0 C 64 % 0 lf 1015,4 hPa 0,0 l/m 0 min 0 min 0 W/m 10,5 km/h (2 Bft) 97,87 %
29.04.2017 23:50 8,0 C 7,2 C 5,0 C 64 % 0 lf 1015,4 hPa 0,0 l/m 0 min 0 min 0 W/m 10,5 km/h (2 Bft) 97,87 %
29.04.2017 23:52 8,0 C 7,2 C 5,0 C 64 % 0 lf 1015,4 hPa 0,0 l/m 0 min 0 min 0 W/m 16,7 km/h (3 Bft) 95,74 %
29.04.2017 23:54 7,9 C 7,2 C 5,0 C 64 % 0 lf 1015,4 hPa 0,0 l/m 0 min 0 min 0 W/m 12,6 km/h (3 Bft) 97,87 %
29.04.2017 23:56 7,9 C 7,2 C 5,0 C 64 % 0 lf 1015,4 hPa 0,0 l/m 0 min 0 min 0 W/m 10,5 km/h (2 Bft) 97,87 %
29.04.2017 23:58 7,9 C 7,2 C 5,0 C 64 % 0 lf 1015,5 hPa 0,0 l/m 0 min 0 min 0 W/m 12,6 km/h (3 Bft) 97,87 %
_ Min-Zeit 07:16 06:38 06:36 16:20 00:00 23:16 - - - - 06:38 10:08
Minimum _ 1,5 C 0,6 C -0,6 C 47 % 0 lf 1015,4 hPa - - - - 0,0 km/h (0 Bft) 87,23 %
_ Max-Zeit 15:54 12:16 14:42 08:32 06:32 11:50 00:00 06:32 00:00 13:46 16:08 01:38
Maximum _ 14,2 C 26,1 C 23,9 C 95 % 2 lf 1017,9 hPa 0,0 l/m 2 min 0 min 1115 W/m 23,0 km/h
N-NO (4 Bft)
100,00 %
Durchschnitt _ 8,3 C 10,9 C 7,9 C 70 % 0 lf 1016,7 hPa #0,0 l/m #10:34 h #0 min. 362 W/m 8,7 km/h (2 Bft) 96,35 %
© 2017 W. Hausmann